[{"header": {"dx": 0.06612293990616946, "dy": 0.0552356325346848, "nx": 98, "ny": 59, "la1": 35.046912555036876, "la2": 31.78801023549047, "lo1": -121.43107172385933, "lo2": -114.95102361305473, "refTime": "2026040905", "parameterCategory": 1, "parameterNumber": 2}, "data": [7.73, 7.73, 7.51, 7.51, 7.51, 7.51, 7.51, 7.51, 6.92, 6.23, 5.01, 4.65, 4.22, 3.9, 3.13, 1.34, 0.89, 0.45, 0.45, 0.45, 1.34, 2.24, 2.68, 3.58, 4.02, 4.92, 5.75, 5.77, 4.92, 4.87, 5.34, 5.43, 4.93, 3.58, 3.07, 2.4, 2.4, 2.4, 1.7, 0.6, 0.0, 0.61, 1.8, 4.47, 7.47, 9.92, 12.52, 13.51, 14.74, 12.51, 3.58, 1.33, 2.2, 2.88, 3.11, 3.79, 5.3, 6.39, 6.39, 6.7, 6.7, 6.08, 5.82, 4.81, 3.79, 4.46, 5.46, 6.64, 8.14, 10.15, 11.45, 11.45, 10.32, 8.63, 7.71, 7.47, 8.91, 10.52, 12.42, 9.39, 2.68, -0.45, -1.2, -1.26, 0.0, 0.0, 1.58, 2.4, 3.82, 7.28, 9.49, 10.15, 9.84, 9.9, 9.52, 8.24, 5.32, 5.77, 7.73, 7.73, 7.51, 7.51, 7.51, 7.51, 7.51, 6.92, 6.28, 5.65, 4.71, 4.81, 4.6, 4.15, 3.82, 3.13, 0.89, 0.45, 0.45, 0.0, 0.6, 1.58, 3.04, 3.58, 4.47, 5.31, 5.59, 4.66, 3.58, 2.8, 3.83, 4.4, 3.74, 3.13, 2.6, 2.4, 2.91, 3.32, 2.91, 2.4, 1.24, 0.7, 4.22, 6.31, 9.1, 11.76, 12.72, 13.41, 12.52, 4.93, 1.4, 2.2, 2.4, 2.88, 2.8, 3.79, 5.3, 6.01, 6.39, 6.7, 7.07, 6.7, 5.72, 5.46, 4.46, 4.81, 5.46, 6.64, 8.0, 9.74, 11.21, 11.87, 10.75, 9.54, 8.19, 8.19, 10.02, 10.52, 12.42, 9.39, 2.68, -0.45, -1.2, -1.26, 0.0, 0.0, 1.58, 2.4, 3.82, 7.28, 9.49, 10.15, 9.84, 9.9, 9.52, 8.24, 5.32, 5.77, 7.73, 7.73, 7.73, 7.51, 7.51, 7.51, 6.92, 6.62, 5.65, 5.01, 4.71, 3.79, 4.54, 4.6, 3.74, 3.47, 1.79, 1.34, 0.63, 0.0, 0.0, 0.65, 1.6, 2.84, 4.98, 5.59, 5.16, 3.95, 2.24, 2.12, 2.4, 3.07, 2.6, 1.79, 1.86, 2.23, 3.32, 3.45, 4.0, 3.45, 2.79, 4.37, 6.33, 8.61, 10.05, 11.92, 11.76, 9.62, 4.24, 2.5, 2.73, 3.35, 2.73, 2.88, 2.8, 3.79, 4.56, 5.69, 6.39, 6.7, 7.07, 6.7, 6.08, 5.43, 4.74, 5.09, 6.08, 7.07, 8.24, 9.27, 11.09, 12.14, 12.14, 10.62, 8.01, 8.01, 10.26, 12.74, 13.39, 11.62, 4.47, 1.34, -0.63, -1.24, -1.9, -0.57, 0.57, 1.9, 4.0, 8.8, 11.2, 10.9, 9.92, 9.92, 7.69, 4.24, 4.43, 6.98, 8.37, 8.0, 7.73, 7.51, 7.51, 7.17, 6.87, 6.28, 5.06, 4.74, 4.11, 3.78, 4.11, 3.84, 3.83, 4.15, 3.95, 2.97, 0.6, 0.0, 0.0, 0.0, 0.65, 1.49, 3.07, 4.65, 4.4, 4.85, 3.58, 2.24, 2.24, 2.12, 1.24, 0.0, 0.85, 2.21, 2.86, 4.98, 5.43, 5.59, 6.05, 7.01, 7.69, 8.29, 8.53, 7.96, 6.94, 4.02, 3.83, 4.46, 4.73, 3.79, 2.98, 3.11, 3.0, 4.03, 5.0, 5.69, 6.39, 6.7, 7.07, 6.7, 6.08, 5.09, 5.06, 6.06, 6.7, 6.98, 8.23, 9.78, 11.44, 13.49, 13.96, 11.09, 8.05, 6.98, 9.11, 13.32, 15.65, 12.5, 6.67, 2.6, 0.0, -2.4, -2.91, -1.24, 0.57, 2.53, 6.08, 10.29, 11.9, 10.9, 9.66, 6.68, 3.07, 3.09, 5.16, 7.76, 8.37, 8.0, 8.0, 7.73, 7.51, 7.17, 6.87, 5.98, 4.45, 4.12, 4.11, 3.2, 3.35, 3.48, 4.19, 3.79, 3.84, 3.6, 0.8, 0.0, 0.0, 0.0, 0.0, 0.57, 1.2, 1.98, 3.93, 4.98, 4.82, 3.51, 2.8, 1.88, 0.79, 0.0, 1.01, 2.26, 3.2, 5.2, 6.31, 6.97, 6.87, 6.31, 5.3, 4.93, 4.92, 5.77, 6.51, 6.79, 6.36, 5.86, 4.4, 3.79, 2.88, 2.8, 3.2, 4.29, 5.37, 5.37, 6.01, 7.32, 7.28, 7.03, 5.43, 4.65, 6.06, 7.06, 7.07, 6.44, 7.02, 9.3, 11.83, 14.68, 15.27, 13.78, 9.36, 5.44, 6.44, 10.27, 13.96, 13.79, 6.58, 2.4, 0.0, -2.91, -3.45, -1.2, 1.84, 5.37, 8.93, 11.25, 10.91, 9.92, 7.68, 2.53, 1.7, 3.45, 7.01, 7.76, 8.37, 8.0, 8.0, 8.0, 7.51, 7.21, 6.28, 5.37, 4.74, 3.83, 3.49, 2.86, 3.48, 3.79, 4.11, 3.63, 3.35, 3.48, 2.53, 0.7, 0.0, -0.72, 0.0, 0.0, 0.85, 1.6, 3.0, 4.47, 4.19, 4.11, 3.22, 2.21, 1.33, 0.69, 1.4, 2.06, 3.15, 5.28, 6.97, 5.52, 3.91, 3.22, 3.07, 4.47, 7.11, 8.46, 8.46, 8.49, 7.15, 5.31, 3.74, 3.48, 2.88, 2.88, 2.88, 3.9, 4.74, 4.65, 6.06, 7.67, 8.0, 6.07, 5.09, 5.37, 6.44, 7.67, 6.7, 5.72, 6.08, 8.63, 11.45, 13.78, 14.68, 15.61, 14.21, 9.83, 4.46, 5.37, 7.89, 12.05, 4.41, 2.21, 0.61, -1.88, -2.79, 0.0, 4.0, 8.46, 10.86, 10.18, 9.23, 9.27, 3.79, 0.63, 1.2, 4.0, 7.76, 7.28, 8.37, 8.37, 8.0, 8.0, 7.8, 7.21, 6.28, 5.06, 4.12, 3.49, 2.86, 2.48, 3.48, 4.19, 5.01, 3.35, 3.72, 4.01, 4.16, 3.0, 1.3, 0.0, -0.73, 0.0, 1.05, 2.98, 3.11, 3.11, 2.98, 2.29, 1.74, 1.49, 1.9, 2.07, 2.12, 2.0, 3.06, 5.45, 6.11, 3.64, 1.8, 0.98, 2.0, 5.24, 8.4, 9.08, 9.49, 8.67, 6.66, 6.71, 5.26, 2.84, 2.98, 2.98, 2.98, 3.72, 4.43, 4.43, 6.07, 7.2, 7.03, 6.07, 5.09, 5.46, 5.46, 6.44, 6.64, 5.75, 5.34, 8.36, 11.06, 11.98, 12.79, 14.57, 15.91, 15.03, 8.94, 2.5, 2.4, 6.21, 5.16, 3.43, 2.2, 0.0, 0.0, 1.43, 6.21, 9.02, 10.12, 9.17, 8.49, 6.17, 0.63, -0.0, 2.23, 5.44, 7.28, 6.28, 8.37, 8.37, 8.0, 8.0, 7.8, 6.87, 5.69, 4.75, 3.84, 3.49, 2.84, 1.73, 2.76, 4.11, 5.59, 4.43, 4.43, 5.43, 4.07, 3.84, 3.04, 3.51, 2.53, 2.26, 1.5, 2.23, 3.39, 2.13, 0.0, 0.0, 0.0, 0.0, 0.87, 2.76, 3.69, 3.51, 2.83, 3.7, 5.44, 5.37, 3.0, 2.98, 4.15, 5.6, 6.45, 6.11, 6.7, 7.6, 5.32, 4.92, 2.23, 1.84, 2.4, 2.98, 3.22, 4.01, 4.74, 5.09, 6.44, 6.94, 6.94, 6.28, 4.8, 4.4, 3.83, 4.4, 6.28, 5.77, 4.92, 7.15, 9.83, 11.18, 12.49, 14.22, 14.67, 14.75, 12.87, 7.45, 4.41, 8.49, 10.19, 5.69, 3.33, 2.9, 2.63, 4.23, 6.21, 8.66, 8.76, 8.53, 6.87, 1.8, -0.0, 0.61, 3.14, 6.36, 6.79, 5.86, 8.37, 8.37, 8.0, 8.0, 7.44, 6.87, 5.69, 4.75, 4.12, 3.84, 2.8, 2.12, 2.17, 3.21, 4.34, 4.42, 4.56, 4.56, 3.79, 1.9, 2.68, 5.81, 7.15, 5.75, 3.79, 2.98, 2.09, 0.0, -1.1, 0.0, 0.0, 0.0, 1.11, 2.1, 3.11, 3.8, 3.52, 3.45, 4.2, 5.21, 4.44, 3.17, 3.35, 1.49, 0.57, 0.0, 0.71, 2.23, 2.17, 1.2, 1.08, 1.49, 2.4, 2.88, 3.64, 4.36, 5.43, 6.08, 7.03, 7.47, 7.71, 6.55, 4.24, 2.8, 2.21, 4.4, 6.07, 6.21, 4.47, 5.81, 8.05, 10.71, 13.21, 14.03, 13.7, 12.42, 10.73, 10.62, 12.05, 13.41, 14.3, 6.25, 3.55, 3.33, 4.0, 4.66, 5.62, 7.36, 7.59, 6.95, 3.79, 1.7, 1.26, 2.15, 4.0, 6.36, 7.28, 5.86, 8.37, 8.37, 8.0, 8.0, 7.44, 6.62, 5.37, 4.75, 4.45, 4.1, 4.08, 4.0, 4.6, 4.13, 4.06, 4.17, 5.06, 4.93, 4.15, 3.25, 3.3, 5.21, 7.81, 7.47, 5.46, 4.21, 1.98, 0.0, -1.05, 0.0, 1.09, 1.11, 0.0, 0.0, 0.0, 2.17, 3.99, 4.6, 5.45, 4.19, 1.88, 1.24, 1.2, -0.0, -0.0, -0.0, -0.0, -0.0, -0.0, -0.0, -0.0, 1.33, 2.2, 3.72, 4.36, 5.06, 6.08, 7.03, 7.89, 8.19, 8.36, 6.55, 5.4, 1.9, 2.15, 3.45, 5.86, 6.55, 4.47, 4.92, 8.01, 11.09, 13.69, 14.15, 13.25, 11.99, 10.62, 10.16, 11.54, 13.84, 15.65, 15.2, 3.16, 2.11, 2.8, 3.55, 4.94, 5.64, 6.35, 4.75, 2.79, 2.49, 3.07, 3.58, 3.98, 6.11, 7.45, 5.64, 8.37, 8.37, 8.0, 8.0, 7.44, 6.28, 5.08, 4.75, 4.47, 4.81, 5.1, 5.98, 6.58, 5.83, 4.93, 5.38, 6.47, 5.81, 4.77, 4.04, 4.79, 5.01, 6.59, 6.6, 6.21, 4.36, 3.14, 1.05, 0.0, 0.0, 2.06, 1.56, 0.0, -1.13, -1.45, 0.0, 3.39, 5.21, 2.0, 1.2, -0.0, 0.63, 0.8, -0.0, -0.0, -0.0, -0.0, -0.0, -0.0, -0.0, -0.0, 1.2, 1.88, 3.84, 4.81, 6.07, 7.47, 8.19, 8.46, 8.94, 8.49, 5.77, 2.86, 1.33, 2.07, 3.84, 5.6, 6.28, 5.77, 6.22, 9.11, 11.75, 13.4, 13.56, 13.25, 12.79, 11.28, 9.6, 10.43, 12.14, 13.4, 15.18, 12.52, 2.53, 1.88, 2.51, 4.11, 4.74, 5.38, 3.78, 3.14, 3.16, 3.48, 3.6, 4.47, 7.12, 6.55, 4.73, 8.0, 8.37, 8.0, 8.0, 7.44, 6.28, 5.37, 5.08, 5.08, 5.71, 6.34, 6.69, 7.26, 7.61, 7.61, 7.33, 6.96, 6.22, 6.33, 5.74, 5.78, 5.81, 5.3, 6.34, 4.18, 4.4, 4.0, 2.8, 2.2, 0.96, 0.73, 1.16, 0.89, 1.2, 0.57, 0.59, 1.11, 0.57, 0.45, -0.0, -0.0, -0.0, 0.63, 0.95, 0.95, -0.0, -0.63, -0.63, -0.63, 0.45, 0.0, 0.45, 1.79, 2.6, 3.74, 5.64, 7.45, 8.46, 8.49, 8.01, 5.81, 2.8, 1.4, 0.61, 1.16, 3.14, 5.69, 6.54, 6.66, 7.11, 8.55, 10.88, 12.22, 11.87, 11.66, 12.58, 12.14, 10.68, 10.65, 10.65, 9.49, 9.36, 11.18, 5.36, 2.4, 2.5, 4.12, 4.11, 4.11, 3.16, 3.79, 4.02, 4.02, 3.72, 5.64, 8.05, 5.77, 4.0, 8.0, 8.37, 8.0, 8.0, 7.44, 6.28, 5.69, 5.08, 5.38, 6.01, 6.95, 7.3, 7.32, 7.95, 9.13, 9.13, 8.19, 6.97, 6.71, 6.92, 7.57, 7.33, 6.7, 4.83, 3.64, 4.66, 6.17, 7.52, 7.58, 6.24, 4.47, 4.02, 4.43, 3.97, 2.68, 0.45, -0.63, -0.57, -0.57, -0.0, -0.0, -0.63, 0.0, 0.95, 1.2, 0.0, -0.85, -1.49, -1.24, -0.71, -0.53, 0.0, 0.61, 1.88, 2.6, 4.98, 5.73, 7.15, 7.15, 3.53, 1.34, 0.57, -0.0, -0.0, 0.54, 1.88, 3.16, 5.09, 5.05, 5.34, 6.21, 7.11, 7.98, 8.82, 10.01, 11.62, 12.14, 11.09, 9.34, 6.54, 3.32, 3.97, 8.84, 10.62, 4.92, 3.51, 4.09, 3.78, 3.49, 3.72, 3.78, 3.43, 2.73, 4.09, 6.79, 7.6, 4.3, 3.6, 8.0, 8.0, 8.0, 8.0, 7.44, 6.28, 5.69, 5.08, 5.69, 6.32, 6.95, 7.59, 7.9, 8.53, 9.17, 10.06, 9.37, 7.73, 6.92, 7.27, 8.45, 9.3, 8.94, 8.28, 7.87, 8.94, 10.28, 11.16, 11.57, 11.57, 11.11, 9.39, 8.49, 3.97, 1.79, -0.0, -0.0, -0.0, -0.0, -0.0, 0.0, 0.0, 0.0, 1.98, 2.12, 1.03, -0.7, -1.98, -1.98, -0.96, -0.96, 0.0, 1.11, 2.23, 2.13, 2.75, 2.0, 3.47, 5.36, 1.34, -1.34, -1.26, -0.71, -0.71, -0.0, -0.0, 1.2, 1.84, 4.19, 4.43, 4.74, 2.15, 2.17, 3.45, 7.6, 9.84, 9.2, 6.94, 4.24, 2.6, 2.4, 3.83, 7.33, 8.48, 8.02, 6.66, 5.16, 3.07, 3.07, 3.82, 4.52, 3.35, 4.09, 5.43, 6.85, 6.26, 4.24, 3.6, 8.0, 8.0, 8.0, 8.0, 7.44, 6.28, 5.69, 5.69, 6.01, 6.64, 7.55, 7.86, 8.5, 8.82, 9.13, 9.77, 9.72, 8.78, 7.73, 7.51, 8.65, 9.76, 11.08, 11.21, 11.28, 11.51, 12.02, 12.5, 12.52, 12.52, 12.96, 12.06, 11.13, 7.08, 2.68, -0.0, 1.27, 0.65, 1.4, 0.63, 0.89, 1.0, 0.96, 1.03, 1.03, 1.05, 0.0, 0.0, -1.0, -1.95, -1.05, 1.04, 2.13, 1.95, 0.88, 0.0, 0.0, 2.07, 3.32, 0.45, -1.79, -1.79, -1.6, -0.95, -0.63, -0.0, -0.0, 1.2, 2.23, 2.15, 1.13, -0.61, -1.26, 0.89, 3.32, 4.93, 3.53, 3.13, 2.68, 3.04, 3.07, 4.46, 6.25, 6.25, 5.31, 6.98, 6.98, 4.41, 3.53, 4.41, 5.16, 5.02, 5.05, 5.44, 6.22, 4.3, 4.3, 4.3, 8.0, 8.0, 8.0, 8.0, 7.44, 6.87, 5.69, 5.69, 6.28, 6.92, 7.55, 8.19, 8.78, 9.08, 9.42, 9.46, 9.17, 9.42, 9.02, 8.38, 9.21, 9.5, 10.83, 11.6, 12.6, 12.98, 13.65, 13.75, 14.26, 14.29, 14.3, 14.74, 13.81, 11.57, 5.36, 1.26, 1.2, 2.07, 3.48, 2.68, 1.79, 2.4, 2.21, 0.0, 0.0, 0.0, 0.8, 0.8, 0.0, 0.0, 0.0, 0.0, 0.79, 0.95, 0.45, 0.0, 0.0, 1.33, 0.6, 0.0, -0.45, 0.45, 0.0, 0.0, 0.0, 0.0, 0.0, 0.45, 1.26, 0.65, -0.54, -1.61, -1.4, -0.0, 1.49, 2.5, 2.53, 3.83, 3.51, 3.13, 3.58, 3.95, 4.66, 4.8, 4.46, 4.01, 6.0, 4.93, 4.66, 4.66, 5.64, 5.2, 4.4, 4.88, 6.71, 5.36, 4.92, 4.92, 8.0, 8.0, 8.0, 8.0, 7.44, 6.87, 6.28, 6.01, 6.28, 6.92, 7.55, 8.49, 8.78, 9.37, 9.37, 9.08, 9.13, 9.46, 9.66, 9.59, 9.76, 9.76, 10.16, 11.12, 12.04, 13.1, 14.13, 15.1, 15.6, 16.08, 16.08, 16.53, 16.08, 14.27, 5.16, 2.24, 1.86, 2.8, 3.58, 4.92, 3.35, 1.9, 1.9, 0.6, 0.0, 0.0, 0.45, 0.45, -0.0, -0.0, 0.0, 0.0, 0.0, -0.0, -0.0, 1.79, 1.26, 0.89, 0.89, 0.89, 0.89, 1.26, 1.34, 1.34, 0.89, 0.45, 0.0, 0.0, 0.45, 0.95, -0.45, -1.79, -0.6, 0.57, 1.9, 2.07, 3.91, 6.24, 6.06, 4.12, 3.49, 3.45, 3.53, 3.58, 2.91, 1.4, 3.48, 3.14, 3.84, 5.6, 7.14, 4.8, 3.14, 3.6, 6.07, 6.23, 4.88, 4.88, 8.0, 8.0, 8.0, 8.0, 7.44, 6.87, 6.28, 6.28, 6.62, 6.92, 7.55, 8.73, 9.02, 9.02, 9.02, 9.3, 9.08, 9.13, 9.66, 9.86, 10.16, 10.16, 9.48, 10.18, 11.49, 13.3, 15.02, 15.92, 16.45, 16.89, 16.83, 17.27, 17.34, 15.99, 12.3, 7.71, 3.32, 3.6, 4.6, 3.58, 3.22, 1.6, 1.49, 0.8, 0.0, 0.0, 0.45, -0.0, -0.0, -0.0, -0.0, -0.0, -0.0, -0.0, 1.4, 1.4, 2.8, 2.53, 1.4, 1.9, 2.4, 2.68, 1.79, 0.95, -0.0, -0.6, 0.0, 0.0, 0.65, 1.9, 1.58, 1.2, 2.24, 3.53, 2.6, 1.2, 2.3, 6.68, 7.68, 6.06, 4.43, 3.48, 3.6, 2.68, 1.26, 0.0, 0.0, 1.33, 2.79, 4.46, 6.0, 4.73, 3.07, 3.14, 4.52, 5.64, 5.78, 5.78, 8.0, 8.0, 8.0, 8.0, 7.44, 6.87, 6.28, 6.28, 6.87, 6.92, 8.08, 8.38, 8.78, 9.02, 8.73, 9.0, 8.78, 8.5, 8.38, 9.1, 10.5, 11.08, 9.63, 8.63, 9.49, 13.15, 13.02, 14.92, 15.35, 14.95, 16.29, 16.91, 16.95, 17.07, 15.25, 11.81, 8.0, 6.64, 5.94, 5.06, 2.51, 1.33, 0.0, 0.0, -0.45, -0.95, -0.0, -1.2, -0.0, -0.0, -0.0, -0.0, -0.0, -0.0, -0.0, 1.19, 2.84, 3.35, 3.39, 3.13, 2.68, 2.24, 0.89, -0.0, -1.88, -2.5, -1.34, 0.57, 2.53, 3.45, 4.85, 8.05, 10.62, 11.08, 6.66, 2.24, 2.17, 4.02, 7.11, 6.36, 4.3, 4.43, 4.02, 3.53, 2.49, 1.9, 1.2, 1.24, 2.07, 2.51, 3.07, 4.43, 4.73, 4.0, 4.0, 5.16, 4.87, 4.87, 8.0, 8.0, 8.0, 8.0, 7.44, 6.87, 6.87, 6.62, 6.87, 7.17, 8.08, 8.38, 8.73, 9.3, 9.02, 8.78, 8.19, 6.67, 5.94, 7.68, 10.9, 11.72, 10.23, 9.27, 9.56, 11.2, 12.52, 12.93, 14.03, 15.07, 15.42, 15.73, 15.93, 16.17, 16.29, 14.23, 10.83, 9.02, 7.81, 5.59, 3.16, 1.2, 0.0, -0.45, -0.63, -0.95, -1.0, -0.0, -0.0, -0.0, -0.0, -0.0, -0.0, -0.0, -0.0, 1.16, 4.43, 2.5, 2.24, 2.8, 1.9, 0.0, 0.0, -3.35, -2.21, -2.5, -1.86, -0.0, 2.17, 3.97, 6.79, 10.25, 14.4, 16.47, 14.3, 7.6, 4.03, 4.71, 5.86, 5.31, 5.36, 5.81, 6.26, 4.43, 3.82, 3.39, 2.24, 2.17, 1.86, 1.26, 1.9, 3.82, 6.07, 4.93, 4.09, 4.4, 4.87, 4.87, 8.0, 8.0, 8.0, 8.0, 7.44, 7.09, 6.87, 6.87, 6.87, 7.17, 8.08, 8.38, 8.73, 9.3, 9.37, 9.37, 8.15, 6.95, 6.0, 7.73, 11.14, 11.36, 10.75, 9.82, 10.43, 11.38, 11.67, 12.6, 13.73, 14.23, 14.68, 14.82, 15.19, 15.42, 15.73, 15.02, 12.79, 10.41, 9.3, 8.05, 6.1, 4.34, 3.09, 2.24, 0.89, 0.45, -0.0, -0.0, -0.0, -0.0, -1.41, -1.19, -1.19, -0.0, -0.0, 1.16, 2.73, 2.73, 2.97, 1.26, 0.0, -0.63, -2.68, -4.24, -1.86, -2.23, -1.9, -0.54, -0.0, 2.29, 4.71, 9.3, 13.07, 14.73, 13.77, 10.28, 5.52, 5.99, 5.13, 4.46, 4.73, 5.77, 6.71, 5.81, 4.02, 3.13, 2.63, 2.91, 3.87, 3.13, 3.07, 3.72, 6.54, 5.6, 3.49, 2.79, 3.82, 3.82, 8.27, 8.27, 8.27, 8.0, 7.64, 7.44, 6.87, 6.87, 6.87, 7.17, 8.08, 8.38, 8.73, 9.3, 9.37, 9.02, 8.15, 7.55, 7.6, 9.19, 10.75, 10.76, 10.13, 10.13, 11.06, 12.56, 12.56, 12.22, 12.8, 13.3, 13.66, 14.13, 14.57, 14.82, 15.19, 15.02, 13.59, 11.88, 9.94, 9.21, 8.28, 8.0, 6.97, 5.61, 3.87, 1.79, -0.0, -0.0, -0.0, -1.13, -1.41, -1.19, -1.19, -0.0, -0.0, 1.05, 0.7, 1.41, 2.48, 0.89, 0.0, -1.2, -1.86, -1.86, -1.58, -1.24, -1.49, -1.2, -0.61, -0.0, 1.49, 6.32, 8.3, 5.64, 4.43, 4.8, 5.55, 5.63, 4.08, 3.51, 3.48, 4.3, 4.92, 5.64, 5.2, 4.3, 3.53, 3.13, 4.47, 5.81, 5.72, 5.38, 6.9, 5.31, 3.07, 2.4, 3.32, 3.32, 8.27, 8.27, 8.27, 8.27, 7.64, 7.44, 6.87, 6.87, 7.21, 7.51, 8.08, 8.65, 8.73, 9.3, 9.3, 9.3, 8.38, 8.15, 8.78, 10.06, 10.94, 10.4, 9.5, 9.5, 11.03, 12.22, 13.09, 13.01, 12.93, 12.93, 13.11, 13.48, 13.9, 14.29, 14.67, 14.91, 14.51, 12.95, 10.51, 9.3, 8.65, 8.96, 8.6, 8.48, 6.84, 4.44, 3.13, 1.26, -0.0, -1.6, -1.27, -1.08, -1.08, -0.0, -0.0, -0.0, -0.0, -0.0, 2.41, 2.91, 1.79, 0.0, -1.26, -1.49, -1.4, -1.4, -0.65, -0.54, -1.2, -1.24, -0.6, 1.26, 2.12, 0.0, 0.0, 0.0, 2.82, 4.17, 4.24, 2.82, 1.93, 2.51, 3.39, 4.02, 4.43, 4.3, 3.98, 4.02, 3.98, 5.32, 6.13, 5.09, 4.11, 3.14, 2.4, 2.49, 3.82, 3.82, 7.9, 7.9, 8.27, 8.27, 7.9, 7.44, 7.44, 6.87, 7.44, 7.8, 8.08, 8.65, 8.73, 9.3, 9.3, 9.3, 8.73, 8.15, 8.78, 10.23, 11.16, 10.59, 9.72, 9.17, 10.4, 11.92, 13.01, 13.21, 13.36, 13.36, 13.23, 13.62, 13.76, 14.15, 14.28, 14.51, 14.51, 13.71, 11.5, 8.94, 8.08, 8.18, 8.8, 9.21, 8.0, 6.04, 5.26, 2.68, -0.0, -0.0, -1.27, -0.0, -0.0, -0.0, -0.0, -0.0, -0.53, -0.65, 0.71, 2.8, 3.13, 1.7, -0.63, -1.49, -1.49, -0.79, -0.0, -0.0, -0.65, -1.24, -0.45, 4.15, 4.87, 3.58, 1.6, 0.0, 0.0, 2.17, 4.36, 3.61, 2.0, 1.88, 2.23, 3.35, 3.82, 3.98, 4.02, 3.98, 3.82, 4.43, 5.31, 3.39, 2.15, 2.4, 2.4, 3.6, 4.27, 4.27, 7.9, 7.9, 8.27, 8.27, 8.27, 7.9, 7.44, 7.44, 7.44, 7.8, 8.08, 8.65, 9.01, 8.94, 9.3, 8.94, 8.73, 8.73, 9.02, 10.51, 11.07, 10.87, 9.94, 9.66, 10.65, 11.87, 12.65, 13.01, 13.48, 13.75, 13.62, 13.99, 13.99, 13.99, 14.51, 14.73, 14.73, 14.22, 12.28, 9.38, 7.44, 7.35, 8.28, 9.01, 8.79, 7.51, 5.4, 3.07, 1.34, 0.6, -0.0, -0.0, -0.0, -0.0, -0.0, -0.0, -0.0, -0.99, 0.45, 2.24, 3.58, 2.68, 0.0, -1.9, -1.66, -0.7, -0.0, -0.0, -0.0, -0.0, 1.9, 4.46, 9.33, 10.18, 10.75, 9.49, 4.3, 2.5, 3.17, 2.99, 2.75, 2.82, 2.72, 3.12, 3.16, 3.49, 3.6, 3.6, 3.6, 3.07, 3.32, 4.3, 3.97, 3.58, 3.39, 3.72, 4.27, 4.27, 7.9, 7.9, 7.9, 8.27, 8.27, 7.9, 7.72, 7.44, 7.44, 7.8, 8.08, 8.65, 8.65, 8.94, 9.3, 8.94, 8.73, 8.73, 9.02, 9.94, 11.07, 10.51, 9.94, 9.66, 10.3, 11.52, 12.45, 13.01, 13.21, 13.85, 13.9, 14.15, 14.15, 14.51, 14.51, 14.73, 14.73, 14.94, 13.53, 10.68, 7.9, 6.7, 7.6, 8.6, 9.21, 8.48, 6.51, 4.88, 3.58, 3.07, 2.21, 0.59, -0.0, -0.0, -0.0, -0.0, -0.0, -0.0, 0.45, 0.63, 3.13, 3.58, 2.24, -0.0, -0.65, -0.0, -0.0, -0.0, -0.0, -0.0, 1.26, 2.86, 8.01, 11.6, 12.37, 12.47, 11.94, 7.48, 2.79, 2.18, 3.21, 3.93, 4.0, 3.47, 2.44, 2.51, 3.49, 3.49, 2.5, 0.89, 1.27, 4.52, 5.51, 5.33, 4.88, 4.24, 4.0, 4.0, 7.9, 7.9, 7.9, 7.9, 8.27, 7.9, 7.9, 7.44, 7.44, 8.0, 8.37, 8.65, 8.65, 9.21, 9.3, 8.94, 8.73, 8.73, 9.02, 9.94, 10.51, 10.51, 9.94, 9.66, 10.59, 11.23, 12.09, 12.65, 13.01, 13.58, 14.03, 14.4, 14.82, 14.82, 14.67, 14.91, 15.23, 15.23, 15.02, 13.53, 11.08, 8.55, 7.9, 8.51, 8.79, 8.21, 7.51, 6.68, 5.36, 4.47, 3.2, 1.6, -0.0, -1.23, -0.71, -0.0, -0.0, -0.0, -0.0, 0.45, 1.2, 3.58, 3.58, 1.24, -0.0, -0.0, -0.0, -0.0, -0.0, 0.45, 1.7, 2.5, 5.34, 7.56, 8.82, 9.3, 10.4, 7.73, 3.07, 1.45, 2.28, 4.23, 4.31, 2.82, 1.3, 1.94, 3.16, 2.51, 1.26, 0.0, 0.6, 2.91, 4.88, 6.26, 5.81, 4.92, 4.47, 4.47, 7.9, 7.9, 7.9, 7.9, 7.9, 7.9, 7.9, 7.72, 7.44, 8.0, 8.37, 8.29, 8.65, 9.21, 9.21, 8.94, 8.73, 8.73, 9.3, 9.94, 10.51, 10.51, 9.94, 10.3, 10.59, 11.44, 12.09, 12.45, 12.65, 13.01, 13.21, 14.03, 14.4, 14.82, 14.82, 14.67, 15.02, 15.23, 15.23, 14.53, 12.39, 9.92, 8.43, 8.1, 8.21, 8.47, 9.39, 8.03, 7.13, 5.81, 3.98, 2.23, -0.0, -1.23, -1.13, -0.57, -0.0, -0.0, -0.6, -0.45, 0.63, 3.07, 3.13, 1.9, -0.0, -0.0, 0.61, -0.0, 0.0, 0.45, 1.79, 2.91, 3.83, 3.45, 3.97, 6.26, 8.05, 4.43, 2.17, 0.66, 1.58, 4.68, 5.83, 4.0, 2.06, 1.93, 1.88, 1.13, 0.71, 0.71, 1.16, 2.51, 4.43, 6.22, 6.26, 5.81, 5.36, 5.36, 7.9, 7.9, 7.9, 7.9, 7.9, 7.9, 7.9, 7.9, 7.44, 7.44, 8.37, 8.29, 8.65, 9.21, 9.21, 9.21, 8.73, 8.73, 9.3, 9.59, 10.51, 10.51, 9.94, 9.94, 10.23, 10.8, 11.72, 12.37, 12.45, 12.65, 13.01, 13.85, 14.03, 14.03, 14.43, 14.67, 14.67, 15.42, 15.23, 14.82, 13.62, 11.36, 9.1, 7.67, 7.28, 8.49, 10.28, 11.57, 10.94, 7.07, 4.47, 2.5, -0.0, -1.13, -1.6, -1.16, -1.2, -1.2, -0.95, -0.89, 0.63, 2.6, 2.24, 0.57, -0.0, -0.0, 0.59, 1.2, 0.63, 0.45, 1.27, 3.58, 5.64, 5.09, 5.38, 7.59, 7.32, 4.0, 2.12, 0.65, 1.41, 4.51, 6.0, 5.67, 3.47, 1.3, 0.63, 0.0, 1.27, 1.8, 1.23, 1.94, 3.15, 5.51, 6.22, 6.26, 6.26, 6.26, 7.72, 7.72, 7.9, 7.9, 7.9, 7.9, 7.9, 7.9, 7.64, 7.64, 8.0, 8.55, 8.65, 9.21, 9.21, 9.21, 8.73, 8.73, 9.3, 9.86, 10.15, 10.15, 9.94, 9.94, 10.15, 11.07, 11.62, 11.9, 12.27, 12.56, 12.93, 13.48, 13.48, 13.65, 14.29, 14.54, 14.67, 15.02, 15.02, 15.23, 14.53, 12.39, 9.76, 7.07, 5.6, 7.11, 11.52, 12.94, 11.21, 7.01, 2.68, 1.26, -0.0, -0.53, -1.16, -1.16, -1.88, -1.88, -0.99, -0.95, 0.0, 1.34, 1.2, -0.0, -0.0, -0.61, -0.0, 1.49, 2.4, 1.34, 1.86, 3.51, 7.15, 8.82, 8.65, 9.48, 8.9, 5.72, 3.07, 2.4, 1.84, 4.6, 5.8, 6.53, 5.7, 2.48, 0.59, 0.0, 0.63, 1.35, 0.7, 0.66, 1.84, 4.46, 5.64, 6.23, 6.71, 6.71, 7.72, 7.72, 7.9, 7.9, 7.9, 7.9, 7.9, 7.9, 7.9, 8.0, 8.0, 8.37, 8.65, 9.21, 9.21, 9.21, 9.21, 8.73, 8.94, 9.66, 9.94, 10.15, 9.94, 9.94, 9.94, 10.51, 11.62, 11.62, 12.03, 12.54, 12.82, 13.2, 13.36, 13.36, 13.75, 14.15, 14.28, 14.91, 15.02, 15.23, 14.73, 13.31, 10.3, 6.98, 4.94, 7.03, 11.44, 12.79, 9.48, 4.19, 2.17, 2.4, 2.4, -0.0, -0.0, -0.53, -1.0, -1.16, -1.88, -1.26, -0.63, -0.0, 0.6, 0.45, -0.0, -0.57, -0.57, -0.0, 2.68, 3.58, 2.91, 2.4, 3.58, 10.02, 12.52, 11.75, 10.91, 8.68, 5.09, 4.52, 3.35, 2.66, 4.84, 6.31, 6.7, 5.71, 4.11, 1.84, 1.16, 0.61, 0.0, 0.0, 1.0, 3.07, 5.02, 6.11, 6.26, 6.26, 7.72, 7.72, 7.9, 7.9, 7.9, 7.9, 7.9, 7.9, 7.9, 8.0, 8.0, 8.0, 8.55, 9.21, 9.21, 9.21, 9.21, 9.21, 8.94, 9.3, 9.86, 10.41, 9.94, 9.94, 9.94, 10.51, 11.07, 10.96, 10.9, 10.96, 12.27, 12.93, 13.11, 13.36, 13.36, 13.62, 14.15, 14.67, 14.91, 15.02, 14.73, 14.22, 11.36, 8.0, 6.7, 8.27, 11.36, 11.7, 7.58, 4.02, 4.3, 4.77, 4.44, 3.98, 3.07, 0.57, -0.0, -0.54, -1.2, -1.88, -0.8, -0.0, 0.8, 0.89, 0.63, -0.0, -0.6, 0.0, 2.12, 3.95, 3.53, 0.89, 0.89, 5.36, 14.23, 14.29, 9.2, 5.43, 5.09, 7.33, 7.76, 4.3, 3.14, 5.65, 6.32, 6.28, 6.41, 6.0, 3.82, 2.63, 1.2, 0.0, 1.2, 2.63, 4.73, 5.32, 4.92, 4.92, 7.72, 7.72, 7.72, 7.9, 7.9, 7.9, 7.9, 7.9, 8.27, 8.0, 8.0, 8.0, 8.55, 8.93, 9.21, 9.21, 9.21, 9.21, 9.21, 9.3, 9.86, 10.23, 10.41, 9.94, 9.94, 10.51, 10.51, 10.51, 10.41, 11.53, 11.72, 12.93, 13.3, 13.48, 13.36, 13.36, 13.9, 14.54, 14.67, 14.91, 14.91, 14.22, 12.28, 9.1, 7.35, 8.68, 11.12, 10.66, 8.42, 6.71, 6.68, 6.68, 6.23, 5.34, 4.92, 4.02, 3.13, 0.8, -0.0, -0.0, -0.54, 0.6, 1.9, 0.63, -0.0, -0.0, -0.57, 0.0, 1.6, 3.04, 2.68, -0.0, 0.45, 3.6, 12.43, 15.65, 8.46, 1.86, 2.4, 5.2, 8.91, 8.94, 7.15, 6.22, 8.64, 8.72, 8.79, 8.91, 6.66, 4.92, 3.13, 1.34, 0.63, 1.86, 2.15, 3.97, 3.16, 3.16, 7.72, 7.72, 7.72, 7.9, 7.9, 7.9, 7.9, 7.9, 8.27, 8.27, 8.0, 8.0, 8.55, 8.93, 9.21, 9.21, 9.21, 9.21, 9.21, 9.58, 9.5, 9.86, 10.41, 9.94, 9.94, 10.51, 10.51, 10.51, 11.07, 11.35, 11.35, 12.09, 12.37, 12.93, 12.93, 13.36, 13.75, 13.9, 14.67, 14.67, 14.91, 14.39, 12.79, 9.63, 8.27, 8.8, 10.18, 10.04, 8.87, 8.47, 8.05, 8.05, 7.6, 6.71, 6.26, 5.36, 4.92, 4.02, 1.26, 0.54, -0.0, -0.0, -0.0, -0.0, -0.0, -0.0, -0.8, -0.32, 0.45, 0.89, 1.49, 1.58, 2.24, 6.07, 12.29, 15.47, 12.94, 7.71, 5.94, 7.94, 10.28, 10.73, 11.15, 10.7, 10.63, 11.4, 12.18, 12.3, 10.18, 7.6, 3.98, 0.57, -1.2, -0.66, -0.0, 1.94, 2.06, 2.06, 7.72, 7.72, 7.72, 7.72, 7.9, 7.9, 7.9, 7.9, 8.27, 8.27, 8.0, 8.0, 8.55, 8.93, 9.1, 9.21, 9.21, 9.21, 9.21, 9.21, 9.76, 9.86, 10.41, 10.41, 9.94, 10.15, 10.51, 10.51, 11.07, 11.99, 11.62, 11.62, 11.72, 12.27, 12.56, 13.2, 13.36, 13.9, 14.29, 14.67, 14.28, 13.99, 12.28, 9.63, 8.15, 8.6, 9.7, 10.01, 9.23, 8.79, 8.86, 8.47, 8.03, 7.58, 7.58, 7.13, 6.16, 5.34, 4.02, 1.61, 0.61, -0.0, -0.0, -0.0, -0.0, -0.0, -0.95, -0.89, -0.89, -0.45, -0.0, 1.86, 4.38, 10.18, 12.14, 13.32, 14.11, 13.75, 14.17, 14.44, 13.41, 12.44, 11.31, 10.84, 10.98, 12.3, 12.75, 11.53, 9.36, 7.15, 3.07, -1.23, -3.79, -1.41, -0.0, 0.63, 2.12, 2.12, 7.72, 7.72, 7.72, 7.72, 7.9, 7.9, 7.9, 7.9, 8.27, 8.27, 8.0, 8.18, 8.55, 8.55, 9.1, 9.48, 9.21, 9.21, 9.21, 9.21, 9.76, 9.86, 10.41, 10.41, 10.41, 10.15, 10.15, 10.51, 11.07, 11.62, 11.62, 11.88, 11.5, 11.62, 12.16, 12.82, 12.82, 13.36, 14.15, 14.15, 14.15, 13.99, 11.88, 9.2, 8.22, 8.91, 9.86, 10.01, 9.57, 9.11, 8.79, 8.77, 8.42, 7.97, 7.97, 7.4, 6.97, 6.16, 5.33, 2.91, 1.88, 0.61, -0.0, 0.6, 0.6, 1.26, -0.63, -1.2, -1.79, -1.79, -0.89, 0.4, 3.74, 10.05, 12.52, 11.18, 11.15, 13.05, 15.34, 16.97, 16.08, 12.44, 9.18, 7.33, 7.04, 7.92, 8.38, 7.56, 6.71, 4.47, 0.59, -2.8, -3.11, -0.79, -0.0, 1.33, 2.0, 2.0, 7.72, 7.72, 7.72, 7.72, 7.72, 7.9, 7.9, 7.9, 8.27, 8.27, 8.0, 8.18, 8.55, 8.55, 9.1, 9.1, 9.21, 9.21, 9.21, 9.21, 9.76, 10.13, 10.04, 10.41, 10.41, 10.41, 10.41, 10.79, 11.07, 11.62, 11.62, 11.88, 11.5, 11.5, 12.03, 12.16, 12.7, 12.98, 13.62, 14.15, 13.76, 13.48, 11.08, 9.08, 7.74, 9.11, 9.91, 9.91, 9.43, 8.96, 8.96, 8.64, 8.33, 8.3, 8.3, 7.87, 7.4, 6.61, 4.47, 3.09, 2.5, 1.88, 1.4, 0.6, 1.2, 1.58, -0.0, -1.26, -2.12, -2.24, -1.7, -0.6, 2.21, 9.75, 13.33, 11.6, 8.19, 10.49, 14.9, 16.76, 15.5, 11.6, 8.49, 6.67, 5.33, 6.22, 7.12, 5.36, 4.92, 2.97, -0.0, -1.94, -1.27, -0.0, 0.65, 1.88, 2.86, 2.51, 7.72, 7.72, 7.72, 7.72, 7.72, 7.9, 7.9, 7.9, 8.27, 8.27, 8.27, 8.18, 8.55, 8.55, 9.1, 9.1, 9.48, 9.21, 9.21, 9.21, 9.58, 9.76, 10.13, 10.41, 10.41, 10.41, 10.41, 10.41, 10.96, 11.07, 11.62, 11.88, 11.5, 11.75, 11.5, 12.03, 12.42, 13.09, 13.23, 13.62, 13.62, 12.56, 10.0, 8.4, 8.33, 10.58, 11.13, 10.91, 10.0, 9.01, 8.72, 8.48, 8.17, 8.17, 8.17, 8.17, 7.4, 6.51, 4.47, 3.58, 2.91, 2.5, 2.53, 1.26, 1.2, 1.58, -0.0, -1.2, -1.7, -2.24, -2.17, -1.2, 1.2, 7.56, 15.12, 13.39, 7.92, 8.8, 13.33, 15.54, 13.88, 11.09, 10.26, 9.39, 8.05, 7.15, 7.15, 5.36, 4.43, 3.07, 0.59, -0.0, -0.0, 0.65, 1.9, 2.4, 2.91, 2.86, 7.72, 7.72, 7.72, 7.72, 7.72, 7.72, 7.9, 7.9, 8.27, 8.27, 8.27, 8.18, 8.55, 8.55, 8.93, 9.1, 9.48, 9.48, 9.21, 9.21, 9.21, 9.76, 10.13, 10.3, 10.41, 10.41, 10.41, 10.41, 10.96, 11.34, 11.5, 11.5, 11.5, 11.5, 11.75, 11.75, 12.28, 12.56, 13.09, 13.09, 13.09, 11.88, 9.48, 7.48, 8.4, 11.71, 13.09, 12.62, 11.08, 9.35, 8.4, 7.81, 8.0, 8.0, 8.17, 8.17, 7.26, 5.78, 4.92, 4.47, 3.98, 3.39, 2.5, 2.8, 2.4, 2.0, 0.45, -0.89, -1.79, -1.7, -2.12, -1.34, 0.6, 3.95, 11.57, 13.49, 11.95, 9.39, 10.01, 10.53, 9.45, 8.97, 9.62, 9.36, 8.49, 7.6, 7.57, 6.22, 4.3, 3.14, 2.51, 1.84, 1.61, 1.9, 2.6, 3.07, 3.58, 2.91, 7.35, 7.35, 7.72, 7.72, 7.72, 7.72, 7.9, 7.9, 8.27, 8.27, 8.27, 8.0, 8.55, 8.55, 8.93, 9.1, 9.48, 9.48, 9.48, 9.21, 9.21, 9.76, 9.76, 10.3, 10.41, 10.41, 10.41, 10.41, 10.79, 10.96, 11.34, 11.5, 11.34, 10.96, 11.36, 11.75, 11.75, 12.28, 12.56, 12.7, 12.42, 11.22, 9.35, 7.61, 8.27, 11.44, 13.71, 12.95, 10.96, 8.55, 7.48, 7.31, 8.0, 8.0, 8.06, 8.0, 7.26, 5.7, 5.33, 4.92, 4.47, 3.53, 3.39, 3.2, 2.8, 2.8, 0.89, 0.45, -1.34, -1.7, -1.79, -1.2, 0.0, 2.21, 3.58, 10.28, 12.81, 12.58, 8.46, 4.41, 2.79, 3.14, 5.02, 7.01, 7.15, 7.15, 6.22, 5.64, 5.02, 4.52, 4.0, 3.6, 3.82, 3.97, 4.02, 3.58, 4.02, 4.02, 7.35, 7.35, 7.72, 7.72, 7.72, 7.72, 7.9, 7.9, 7.9, 8.27, 8.27, 8.0, 8.55, 8.55, 8.55, 9.1, 9.1, 9.48, 9.48, 9.48, 9.21, 9.76, 9.76, 10.3, 10.3, 10.41, 10.41, 10.41, 10.41, 10.96, 11.34, 11.34, 10.96, 10.96, 11.22, 11.75, 11.75, 11.88, 12.28, 12.42, 12.03, 10.83, 9.1, 8.27, 8.55, 11.22, 13.19, 12.28, 9.63, 7.23, 6.8, 6.8, 7.31, 8.0, 8.48, 8.0, 6.51, 6.16, 5.7, 5.33, 4.92, 4.02, 3.58, 3.58, 3.39, 3.39, 2.8, -0.0, -0.63, -1.2, -1.34, -1.26, 0.0, 0.61, 1.88, 4.15, 10.28, 12.77, 11.23, 7.28, 3.39, 3.58, 4.47, 6.22, 6.11, 5.77, 4.92, 5.36, 5.32, 5.32, 4.92, 4.92, 4.92, 4.87, 5.16, 4.73, 4.73, 4.73, 7.35, 7.35, 7.35, 7.72, 7.72, 7.72, 7.72, 7.9, 7.9, 8.27, 8.27, 8.27, 8.18, 8.55, 8.55, 9.1, 9.1, 9.48, 9.48, 9.48, 9.48, 9.38, 9.76, 10.13, 10.3, 10.68, 10.41, 10.41, 10.41, 10.96, 10.96, 10.96, 10.96, 11.22, 11.22, 11.22, 11.75, 11.75, 11.75, 11.75, 11.22, 10.3, 9.1, 8.55, 9.35, 10.91, 11.92, 11.39, 8.79, 7.01, 6.6, 6.8, 7.31, 7.81, 8.3, 8.3, 6.79, 6.04, 5.7, 5.26, 5.33, 4.47, 4.02, 4.02, 3.58, 3.82, 2.84, 1.4, -0.0, -1.2, -1.2, -0.71, 0.0, 0.59, 2.2, 4.29, 7.6, 11.18, 12.62, 12.29, 11.88, 11.94, 12.5, 11.09, 7.12, 4.3, 4.3, 4.77, 4.77, 6.11, 5.67, 6.11, 6.11, 6.54, 6.0, 5.34, 5.34, 5.34, 7.09, 7.09, 7.35, 7.72, 7.72, 7.72, 7.72, 7.9, 7.9, 8.27, 8.27, 8.27, 8.18, 8.55, 8.55, 9.1, 9.1, 9.48, 9.48, 9.48, 9.48, 9.63, 10.02, 9.76, 10.3, 10.3, 10.68, 10.68, 10.41, 10.96, 10.96, 10.96, 11.22, 10.83, 10.83, 10.83, 11.36, 11.75, 11.75, 11.36, 10.83, 9.92, 9.48, 9.1, 9.35, 10.62, 11.39, 10.6, 8.96, 7.74, 7.58, 7.51, 7.31, 7.71, 7.81, 7.81, 7.09, 6.36, 6.04, 5.7, 5.26, 4.89, 4.47, 4.02, 4.02, 3.82, 3.82, 1.26, -0.0, -0.89, -0.6, 0.0, 0.0, 1.27, 2.88, 3.64, 5.09, 8.91, 11.52, 12.29, 13.15, 15.51, 17.59, 15.96, 10.37, 4.92, 3.45, 3.78, 4.73, 5.31, 8.4, 5.6, 6.07, 6.64, 5.43, 3.14, 3.14, 3.14, 7.09, 7.09, 7.35, 7.35, 7.72, 7.72, 7.72, 7.72, 7.9, 7.9, 8.27, 8.27, 8.43, 8.55, 8.55, 8.93, 9.1, 9.1, 9.48, 9.48, 9.48, 9.63, 10.02, 9.76, 10.3, 10.3, 10.68, 10.68, 10.68, 10.58, 10.96, 11.22, 10.83, 10.68, 10.68, 10.83, 11.08, 11.6, 11.75, 10.96, 10.68, 10.02, 9.1, 8.96, 9.35, 10.21, 10.71, 10.42, 9.21, 8.91, 8.48, 8.48, 8.0, 7.51, 7.31, 7.31, 6.8, 6.6, 6.3, 6.04, 5.7, 5.24, 4.88, 4.47, 4.02, 3.82, 3.39, 1.2, 0.45, 0.0, 0.0, 0.0, 0.0, 1.27, 2.07, 2.53, 3.07, 6.22, 8.46, 8.3, 10.24, 15.12, 18.04, 16.4, 13.33, 9.68, 5.32, 4.75, 4.36, 5.15, 6.7, 4.46, 4.12, 3.16, 1.88, 0.54, 0.54, 0.54, 6.87, 6.87, 7.35, 7.35, 7.35, 7.35, 7.72, 7.72, 7.9, 7.9, 8.27, 8.27, 8.27, 8.55, 8.55, 8.55, 9.1, 9.1, 9.1, 9.48, 9.48, 9.63, 9.63, 10.02, 10.3, 10.3, 10.68, 10.68, 10.68, 10.68, 11.22, 11.22, 10.83, 10.68, 10.3, 10.55, 10.68, 11.08, 10.83, 10.96, 10.58, 9.92, 9.35, 8.96, 9.71, 10.21, 10.62, 10.42, 9.51, 9.21, 8.79, 8.72, 8.48, 8.0, 7.51, 6.9, 6.8, 6.51, 6.3, 5.81, 5.57, 5.24, 4.77, 4.02, 3.58, 4.02, 3.58, 2.68, 1.34, 0.0, 0.0, 0.0, 0.0, 0.61, 1.2, 1.86, 3.07, 4.47, 5.86, 4.65, 7.35, 13.43, 17.5, 16.65, 14.18, 12.25, 7.12, 3.14, 1.27, 2.07, 2.84, 2.51, 1.33, 0.0, -0.65, -0.71, -0.71, -0.71, 6.87, 6.87, 7.35, 7.35, 7.35, 7.35, 7.35, 7.72, 7.72, 7.9, 7.9, 8.27, 8.27, 8.43, 8.55, 8.55, 9.1, 9.1, 9.1, 9.48, 9.48, 9.48, 9.63, 10.02, 9.76, 10.3, 10.3, 10.68, 10.68, 10.68, 10.83, 10.83, 10.68, 10.3, 10.3, 10.55, 10.55, 10.4, 10.16, 10.3, 10.68, 10.3, 9.63, 9.48, 9.88, 10.21, 10.62, 10.21, 9.51, 9.01, 8.79, 8.72, 8.72, 8.3, 7.51, 7.01, 6.51, 6.1, 5.6, 5.4, 5.51, 5.09, 4.34, 3.54, 3.13, 3.58, 3.58, 2.68, 1.34, 0.0, 0.45, -0.57, 0.0, 0.0, 0.57, 1.26, 2.17, 2.68, 3.14, 3.72, 6.07, 10.4, 14.11, 14.91, 14.24, 12.13, 4.3, 0.0, 0.53, 1.16, 1.16, 0.0, -1.2, -1.88, -1.2, -1.24, -1.24, -1.24, 6.87, 6.87, 7.15, 7.15, 7.35, 7.35, 7.35, 7.72, 7.72, 7.9, 7.9, 8.27, 8.27, 8.43, 8.55, 8.55, 8.93, 9.1, 9.1, 9.1, 9.48, 9.48, 9.63, 10.02, 10.02, 10.3, 10.3, 10.68, 10.68, 10.68, 10.83, 10.83, 10.68, 10.3, 10.3, 10.02, 10.02, 9.88, 9.48, 9.88, 10.02, 9.76, 9.76, 10.02, 10.4, 10.4, 10.62, 10.21, 9.71, 9.01, 8.91, 8.72, 8.72, 8.3, 8.0, 7.09, 6.51, 6.0, 5.47, 5.31, 4.9, 4.6, 3.87, 3.09, 2.68, 1.79, 1.79, 1.34, 0.63, -0.0, 0.0, 0.0, 0.0, 0.0, 0.54, 0.99, 1.2, 1.2, 1.9, 3.14, 4.46, 6.7, 8.93, 11.52, 13.54, 12.5, -1.24, -2.21, -1.24, 0.0, -0.6, -1.9, -2.53, -2.21, -2.21, -2.15, -2.15, -2.15, 6.87, 6.87, 7.15, 7.15, 7.15, 7.35, 7.35, 7.35, 7.72, 7.72, 7.9, 8.27, 8.27, 8.43, 8.55, 8.55, 8.55, 9.1, 9.1, 9.1, 9.48, 9.48, 9.63, 10.02, 10.02, 10.3, 10.3, 10.68, 10.68, 10.68, 10.68, 10.68, 10.68, 10.3, 9.76, 10.02, 9.63, 9.35, 8.96, 9.2, 8.96, 9.1, 9.76, 9.76, 10.55, 10.16, 10.4, 9.88, 9.71, 9.2, 8.91, 8.51, 8.72, 8.22, 7.81, 7.51, 6.6, 6.0, 5.6, 5.31, 4.8, 4.19, 3.87, 3.09, 3.07, 1.6, 1.2, 0.63, 0.89, 0.89, 0.89, 0.89, 0.8, 0.0, 0.0, 0.0, 0.0, 0.45, 0.6, 2.15, 3.45, 3.84, 5.09, 9.2, 13.29, 7.15, 0.0, -3.6, -3.39, -2.12, -1.2, -1.9, -2.53, -2.53, -2.79, -2.53, -2.53, -2.53, 6.87, 7.15, 7.15, 7.15, 7.15, 7.35, 7.35, 7.35, 7.72, 7.72, 7.9, 7.9, 8.27, 8.27, 8.55, 8.55, 8.55, 9.1, 9.1, 9.1, 9.1, 9.48, 9.63, 9.63, 10.02, 10.3, 10.3, 10.3, 10.68, 10.68, 10.68, 10.68, 10.3, 10.3, 9.76, 9.63, 9.48, 9.35, 8.82, 8.68, 8.68, 9.07, 9.1, 9.76, 10.3, 10.55, 10.16, 9.88, 9.71, 9.2, 8.91, 8.51, 8.51, 8.22, 7.81, 7.31, 7.01, 6.1, 5.6, 5.08, 4.8, 4.19, 3.87, 3.53, 3.39, 2.91, 1.26, 0.57, 0.0, 0.54, 0.6, 1.2, 1.79, 1.49, 0.0, 0.0, -0.63, -0.45, -0.0, 1.6, 2.5, 2.79, 3.45, 7.45, 15.2, 11.18, 1.86, -2.68, -3.07, -2.15, -1.24, -1.2, -2.53, -3.14, -3.14, -2.53, -2.53, -2.53, 7.15, 7.15, 7.15, 7.15, 7.15, 7.15, 7.35, 7.35, 7.35, 7.72, 7.9, 7.9, 8.27, 8.27, 8.18, 8.55, 8.55, 9.1, 9.1, 9.1, 9.1, 9.48, 9.63, 9.63, 10.02, 10.3, 10.3, 10.3, 10.68, 10.68, 10.68, 10.3, 10.3, 10.13, 10.02, 9.48, 9.1, 8.82, 8.43, 8.28, 8.4, 8.28, 8.82, 9.1, 10.02, 10.02, 10.02, 9.88, 9.48, 9.2, 8.8, 8.91, 8.51, 8.0, 7.81, 7.31, 7.01, 6.51, 6.0, 5.6, 5.31, 4.6, 4.3, 3.82, 3.39, 3.6, 1.86, 1.24, 0.0, 0.0, 0.0, 0.61, 1.88, 2.21, 0.57, 0.0, -1.2, -0.89, -0.0, 0.63, 1.49, 2.5, 3.45, 13.41, 15.2, 12.96, 4.02, -1.0, -2.23, -1.13, -0.59, -1.13, -2.23, -3.14, -3.14, -2.86, -2.86, -2.86, 6.79, 6.79, 7.15, 7.15, 7.15, 7.15, 7.35, 7.35, 7.35, 7.72, 7.9, 7.9, 8.27, 8.27, 8.18, 8.55, 8.55, 8.93, 9.1, 9.1, 9.1, 9.48, 9.48, 9.63, 10.02, 9.76, 10.3, 10.3, 10.68, 10.68, 10.3, 10.3, 10.3, 9.76, 10.02, 9.48, 8.93, 8.82, 8.43, 8.15, 8.15, 8.15, 8.28, 8.82, 9.35, 9.63, 9.63, 9.63, 9.35, 9.2, 8.68, 8.91, 8.51, 8.0, 8.0, 7.71, 6.8, 6.51, 6.1, 5.6, 5.6, 5.31, 4.6, 4.3, 3.87, 3.72, 3.72, 2.84, 0.54, 0.0, 0.0, 0.0, 0.73, 0.7, 0.0, 0.0, -0.95, -0.63, 0.0, 0.45, 0.63, 1.86, 7.92, 12.87, 14.23, 12.44, 5.36, 0.0, -1.27, 0.0, 0.0, -0.7, -2.51, -3.14, -3.07, -2.68, -2.68, -2.68, 6.52, 6.52, 6.79, 6.79, 6.79, 7.15, 7.15, 7.35, 7.35, 7.72, 7.72, 7.9, 8.27, 8.27, 8.0, 8.55, 8.55, 8.55, 9.1, 9.1, 9.1, 9.1, 9.48, 9.63, 10.02, 9.76, 10.3, 10.3, 10.68, 10.3, 10.3, 10.3, 10.3, 9.76, 9.63, 9.1, 8.55, 8.43, 8.27, 7.9, 8.15, 8.15, 8.15, 8.28, 8.68, 8.96, 9.35, 8.96, 8.96, 8.68, 8.68, 8.51, 8.0, 8.0, 8.0, 7.48, 7.31, 6.8, 6.28, 6.1, 6.0, 5.6, 4.9, 4.19, 4.11, 4.11, 3.72, 2.79, 1.26, 1.0, 1.33, 0.7, 0.0, 0.0, -0.65, -0.61, -0.54, 0.0, 0.0, 0.63, 0.45, 0.89, 5.64, 10.75, 11.66, 10.49, 4.73, 0.0, -1.11, 0.0, 0.0, -1.3, -2.84, -3.45, -3.07, -2.63, -2.63, -2.63, 6.52, 6.52, 6.79, 6.79, 6.79, 6.79, 7.15, 7.35, 7.35, 7.72, 7.72, 7.9, 8.27, 8.0, 8.0, 8.55, 8.55, 8.55, 8.93, 9.1, 9.1, 9.1, 9.48, 9.63, 9.76, 9.76, 10.3, 10.3, 10.3, 10.3, 10.3, 10.3, 9.76, 9.76, 9.48, 9.1, 8.55, 8.27, 7.9, 7.9, 7.9, 7.9, 8.15, 8.15, 8.28, 8.68, 8.68, 8.68, 8.68, 8.28, 8.15, 8.0, 8.0, 8.0, 7.6, 7.71, 7.31, 6.56, 6.28, 6.28, 5.89, 5.75, 5.08, 4.4, 4.11, 4.11, 3.72, 3.14, 2.21, 1.24, 1.24, 0.57, 0.0, -0.8, -0.71, 0.0, 0.0, 0.0, 0.0, 0.0, 0.0, 2.12, 3.58, 8.36, 10.49, 10.18, 6.11, 1.7, -0.59, 0.0, -0.67, -2.66, -3.14, -2.86, -2.4, -1.79, -1.79, -1.79, 6.52, 6.52, 6.79, 6.79, 6.79, 6.79, 7.15, 7.35, 7.35, 7.72, 7.72, 7.9, 8.0, 8.0, 8.0, 8.55, 8.55, 8.55, 8.93, 9.1, 9.1, 9.1, 9.48, 9.63, 9.76, 9.76, 10.13, 10.3, 10.3, 10.3, 10.3, 9.76, 10.02, 10.02, 9.48, 8.93, 8.55, 8.27, 7.9, 7.9, 7.9, 8.27, 8.27, 8.43, 8.28, 8.28, 8.15, 8.15, 7.76, 8.0, 7.87, 7.48, 7.48, 7.48, 7.71, 7.31, 7.2, 6.8, 6.41, 6.03, 6.03, 5.75, 5.47, 4.55, 4.27, 3.88, 3.88, 3.35, 2.23, 0.57, 0.8, 0.6, 0.0, -0.6, -1.24, 0.0, 0.53, 0.0, 0.0, 0.0, 0.0, 1.24, 2.91, 5.77, 10.28, 10.73, 8.05, 3.13, 0.0, -0.51, -2.48, -4.11, -1.84, -0.57, -0.0, -0.6, -0.6, -0.6, 6.28, 6.28, 6.79, 6.79, 6.79, 6.79, 7.15, 7.15, 7.35, 7.72, 7.72, 7.64, 8.0, 8.0, 8.0, 8.55, 8.55, 8.55, 8.93, 8.93, 9.1, 9.1, 9.1, 9.48, 9.76, 9.76, 9.76, 10.3, 10.3, 10.3, 9.76, 10.02, 10.02, 9.63, 9.1, 8.55, 8.43, 8.27, 7.9, 7.9, 7.9, 8.27, 8.27, 8.43, 8.68, 8.28, 8.4, 8.0, 8.0, 7.48, 7.48, 7.08, 7.08, 7.08, 7.31, 7.2, 6.8, 6.8, 6.28, 6.41, 6.41, 5.86, 5.21, 4.93, 4.17, 4.27, 3.88, 3.35, 2.53, 0.71, 0.0, 0.0, 0.0, -0.71, -0.61, 0.0, 0.7, 1.33, 0.0, 0.0, 0.0, 0.54, 2.53, 4.93, 9.72, 11.62, 10.28, 4.02, 0.0, -1.2, -2.23, -2.48, -0.59, 0.89, 1.16, 0.59, 0.59, 0.59, 6.28, 6.28, 6.57, 6.79, 6.79, 6.79, 7.15, 7.15, 7.35, 7.72, 7.72, 7.44, 8.0, 8.0, 8.0, 8.37, 8.55, 8.55, 8.55, 8.93, 8.93, 9.1, 9.1, 9.1, 9.63, 9.76, 9.76, 9.76, 9.76, 10.02, 10.02, 10.02, 9.63, 9.63, 9.1, 8.55, 8.27, 8.27, 7.9, 7.9, 7.9, 7.9, 8.27, 8.43, 8.43, 8.68, 8.28, 8.0, 8.0, 7.48, 7.48, 7.08, 6.95, 6.95, 6.95, 6.8, 6.8, 6.51, 6.28, 6.28, 6.41, 5.93, 5.29, 4.65, 4.55, 4.0, 4.0, 3.72, 2.79, 1.88, 0.53, 0.0, 0.0, 0.0, 0.0, 0.0, 0.0, 0.61, 0.0, -0.54, 0.0, 0.65, 2.53, 5.05, 10.02, 11.52, 11.15, 7.12, 2.17, 0.0, -0.53, -0.61, 0.57, 1.9, 2.2, 1.41, 1.41, 1.41, 6.28, 6.28, 6.57, 6.57, 6.79, 6.79, 7.15, 7.15, 7.35, 7.72, 7.72, 7.44, 8.0, 8.0, 8.0, 8.0, 8.55, 8.55, 8.55, 8.55, 8.55, 8.93, 9.1, 9.1, 9.48, 9.63, 10.02, 10.02, 10.02, 10.02, 10.02, 9.63, 9.63, 9.63, 9.1, 8.55, 8.27, 8.27, 7.9, 7.9, 7.9, 7.9, 8.27, 8.27, 8.43, 8.43, 8.28, 8.4, 8.0, 8.0, 7.48, 7.08, 6.95, 6.95, 6.95, 6.8, 6.67, 6.51, 6.1, 6.28, 6.41, 6.15, 5.59, 4.94, 4.65, 4.29, 4.0, 3.43, 2.79, 2.21, 1.0, 0.0, 0.0, 0.0, 0.6, 0.0, 0.0, 0.0, 0.0, 0.0, 0.0, 1.16, 2.51, 4.73, 9.33, 11.96, 11.6, 9.39, 5.36, 2.68, 1.88, 1.9, 2.68, 3.14, 2.6, 1.98, 1.98, 1.98, 6.28, 6.28, 6.57, 6.57, 6.57, 6.79, 6.79, 7.15, 7.35, 7.35, 7.72, 7.44, 7.64, 8.0, 8.0, 8.0, 8.0, 8.55, 8.55, 8.55, 8.55, 8.55, 8.93, 9.1, 9.48, 9.63, 9.63, 10.02, 10.02, 10.02, 9.63, 9.63, 9.63, 9.63, 9.1, 8.55, 8.27, 8.27, 7.9, 7.9, 7.9, 7.9, 8.27, 8.27, 8.27, 8.43, 8.68, 8.15, 8.0, 8.0, 7.48, 7.48, 6.95, 6.95, 6.95, 6.56, 6.67, 6.28, 6.1, 5.89, 6.03, 6.15, 5.65, 5.01, 4.71, 4.65, 4.07, 3.43, 2.84, 2.21, 1.2, 0.54, 0.71, 1.34, 0.45, 0.0, 0.0, 0.0, 0.0, 0.0, 0.0, 1.33, 2.23, 4.46, 8.14, 11.06, 11.62, 10.28, 8.49, 6.26, 4.41, 3.58, 3.53, 3.72, 2.73, 2.29, 2.29, 2.29, 6.28, 6.28, 6.57, 6.57, 6.57, 6.79, 6.79, 7.15, 7.35, 7.35, 7.72, 7.44, 7.64, 8.0, 8.0, 8.0, 8.0, 8.55, 8.55, 8.55, 8.55, 8.55, 8.93, 9.1, 9.48, 9.63, 9.63, 10.02, 10.02, 10.02, 9.63, 9.63, 9.63, 9.63, 9.1, 8.55, 8.27, 8.27, 7.9, 7.9, 7.9, 7.9, 8.27, 8.27, 8.27, 8.43, 8.68, 8.15, 8.0, 8.0, 7.48, 7.48, 6.95, 6.95, 6.95, 6.56, 6.67, 6.28, 6.1, 5.89, 6.03, 6.15, 5.65, 5.01, 4.71, 4.65, 4.07, 3.43, 2.84, 2.21, 1.2, 0.54, 0.71, 1.34, 0.45, 0.0, 0.0, 0.0, 0.0, 0.0, 0.0, 1.13, 2.48, 4.11, 7.03, 9.58, 11.15, 10.73, 9.81, 8.82, 7.45, 6.55, 4.93, 4.4, 3.14, 2.07, 2.07, 2.07]}, {"header": {"dx": 0.06612293990616946, "dy": 0.0552356325346848, "nx": 98, "ny": 59, "la1": 35.046912555036876, "la2": 31.78801023549047, "lo1": -121.43107172385933, "lo2": -114.95102361305473, "refTime": "2026040905", "parameterCategory": 1, "parameterNumber": 3}, "data": [-6.08, -6.08, -6.35, -6.35, -6.35, -6.35, -6.35, -6.35, -6.34, -5.1, -4.45, -3.49, -2.53, -0.98, 0.0, 0.0, 0.0, 0.0, 0.0, 0.0, 0.0, 0.0, 0.0, 0.0, 0.0, 0.0, -0.82, -0.72, 0.0, 0.7, 2.29, 3.11, 2.11, 0.0, -0.61, -1.2, -1.2, -1.2, -0.57, -1.2, -1.79, -3.07, -3.6, -5.59, -6.4, -7.63, -8.61, -9.54, -9.31, -7.82, 0.0, 3.32, 4.4, 5.05, 5.43, 6.07, 6.06, 5.59, 5.59, 5.21, 4.46, 4.56, 4.16, 4.01, 3.79, 3.72, 3.9, 3.69, 3.7, 4.68, 3.82, 3.82, 2.95, 2.35, 2.31, 2.99, 2.97, 2.1, 1.55, 0.0, 0.0, -0.0, -0.6, -1.26, -1.79, -1.79, -1.58, -1.2, -1.27, -2.18, -3.95, -4.68, -5.3, -6.09, -5.86, -4.5, -0.67, 0.72, -6.08, -6.08, -6.35, -6.35, -6.35, -6.35, -6.35, -6.34, -5.71, -5.08, -4.12, -4.01, -2.76, -1.66, -1.27, 0.0, 0.0, 0.0, 0.0, -0.89, -1.2, -1.58, -0.76, 0.0, 0.0, -0.76, -1.6, -1.55, 0.0, 1.4, 2.3, 2.2, 1.49, 0.0, -0.65, -1.2, -1.16, -1.33, -1.16, -1.2, -1.86, -3.51, -6.32, -8.68, -9.85, -10.98, -11.92, -11.83, -9.39, -2.11, 2.8, 4.4, 4.8, 5.05, 5.6, 6.07, 6.06, 6.01, 5.59, 5.21, 4.71, 4.46, 4.29, 3.9, 3.72, 4.01, 3.9, 3.69, 4.0, 4.5, 4.48, 3.96, 3.07, 2.39, 2.23, 2.23, 2.31, 2.1, 1.55, 0.0, 0.0, -0.0, -0.6, -1.26, -1.79, -1.79, -1.58, -1.2, -1.27, -2.18, -3.95, -4.68, -5.3, -6.09, -5.86, -4.5, -0.67, 0.72, -6.08, -6.08, -6.08, -6.35, -6.35, -6.35, -6.34, -6.01, -5.08, -4.45, -4.12, -3.79, -3.63, -2.76, -1.49, -0.87, 0.0, 0.0, -0.63, -1.34, -1.79, -2.6, -3.2, -2.84, -1.99, -1.6, -1.47, -0.79, 0.0, 0.71, 1.2, 0.61, 0.65, 0.0, -1.24, -1.49, -1.33, -2.07, -2.0, -2.07, -3.49, -7.28, -10.28, -12.52, -13.14, -12.72, -10.98, -8.01, -1.41, 1.88, 4.09, 4.19, 4.09, 5.05, 5.6, 6.07, 6.08, 5.69, 5.59, 5.21, 4.71, 4.46, 4.56, 4.65, 4.74, 4.36, 4.56, 4.71, 4.5, 5.41, 4.75, 4.55, 3.04, 1.52, 0.73, 0.73, 0.73, 2.39, 0.7, 0.0, 0.0, 0.0, -0.63, -1.86, -1.9, -1.7, -1.7, -1.9, -2.0, -4.4, -5.6, -7.01, -6.87, -6.87, -5.38, -1.41, 0.63, 1.55, -5.98, -5.72, -6.08, -6.35, -6.35, -6.06, -5.72, -5.71, -5.06, -4.74, -4.11, -4.41, -4.11, -3.07, -2.3, -1.66, -0.79, -0.99, -1.2, -1.34, -1.34, -1.79, -2.6, -3.74, -3.84, -3.49, -2.2, -0.81, 0.0, 0.0, 0.0, -0.71, -1.86, -2.24, -2.54, -2.21, -2.15, -2.99, -4.65, -6.39, -8.32, -10.9, -11.53, -10.55, -8.53, -6.51, -3.09, 0.0, 2.3, 3.72, 3.38, 3.79, 4.46, 5.43, 6.0, 6.44, 5.72, 5.69, 5.59, 5.21, 4.71, 4.46, 4.56, 4.36, 5.06, 5.3, 5.21, 5.59, 6.17, 6.29, 6.1, 4.76, 3.1, 1.39, 0.0, -1.55, -2.28, -1.57, 0.0, -0.74, -0.67, -0.65, -0.89, -1.2, -1.16, -1.86, -1.7, -2.53, -4.56, -7.12, -7.93, -7.01, -7.24, -5.94, -1.84, 0.51, 1.47, 2.12, -5.98, -5.72, -5.72, -6.08, -6.35, -6.06, -5.72, -5.38, -5.01, -4.71, -4.11, -3.73, -4.19, -3.48, -3.35, -3.79, -3.07, -1.8, -1.6, -2.24, -2.68, -1.79, -1.79, -1.7, -2.4, -2.98, -2.95, -1.99, -0.96, -0.7, -1.4, -2.5, -3.95, -5.81, -7.08, -6.79, -6.4, -7.28, -8.68, -9.3, -9.92, -8.68, -6.06, -2.11, 0.0, 0.72, 1.63, 2.26, 2.12, 2.2, 2.2, 3.79, 5.05, 5.6, 6.4, 5.72, 5.37, 5.37, 6.01, 5.13, 4.37, 3.91, 4.65, 5.43, 5.3, 5.49, 4.71, 4.83, 6.24, 6.2, 6.31, 5.41, 5.09, 3.83, 0.72, -2.04, -4.83, -4.4, -3.1, -1.38, -1.32, -1.2, -1.34, -1.16, -2.07, -2.4, -3.07, -5.37, -7.44, -8.84, -7.79, -6.87, -6.14, -2.53, 0.57, 2.07, 1.4, 2.12, -5.98, -5.72, -5.72, -5.72, -6.35, -6.01, -5.71, -5.37, -4.74, -4.37, -4.07, -3.43, -3.48, -3.79, -4.11, -4.54, -4.19, -3.48, -4.22, -4.87, -6.26, -5.77, -3.58, -2.68, -2.54, -3.2, -6.0, -5.59, -5.24, -4.11, -2.41, -2.21, -3.32, -6.22, -8.38, -8.24, -7.89, -8.3, -9.3, -8.67, -7.03, -4.29, -1.84, 0.0, 0.79, 0.77, 0.77, 0.0, 0.0, 0.76, 1.49, 3.48, 5.05, 5.05, 5.05, 5.46, 4.74, 5.43, 5.3, 4.6, 4.0, 3.79, 4.36, 5.37, 4.83, 4.6, 4.46, 4.29, 4.56, 4.71, 3.82, 3.83, 5.41, 5.46, 3.95, 0.0, -3.72, -5.37, -3.15, -0.75, -0.73, -2.21, -3.07, -2.5, -3.49, -4.92, -8.0, -9.23, -9.31, -9.4, -8.46, -7.73, -3.79, 0.63, 2.4, 2.0, 2.12, 2.18, -5.98, -5.98, -5.72, -5.72, -6.0, -6.01, -5.71, -5.06, -4.71, -4.65, -4.0, -3.72, -3.48, -3.35, -3.76, -4.19, -4.46, -4.81, -5.82, -6.0, -5.2, -6.26, -8.01, -8.49, -8.43, -7.95, -9.33, -9.33, -7.95, -5.34, -2.6, -2.23, -1.9, -3.45, -6.36, -7.33, -8.4, -8.72, -7.13, -5.09, -3.6, -3.9, -4.0, -4.19, -4.2, -3.78, -3.95, -2.17, -0.74, 0.0, 1.05, 2.84, 4.46, 4.46, 4.46, 4.46, 4.43, 4.43, 3.79, 3.6, 3.91, 3.79, 3.64, 3.9, 3.9, 4.03, 3.69, 2.47, 2.29, 1.52, 1.58, 1.5, 2.13, 2.3, 2.39, 2.25, 0.0, -1.88, -1.2, -0.78, -1.47, -4.12, -5.86, -4.92, -6.26, -9.28, -10.87, -10.52, -10.12, -9.17, -9.2, -8.23, -0.63, 3.13, 2.79, 2.04, 2.18, 2.35, -5.98, -5.98, -5.72, -5.72, -6.0, -5.72, -5.69, -5.35, -4.94, -4.65, -4.55, -4.6, -4.6, -4.11, -4.47, -4.43, -4.43, -4.65, -4.75, -3.07, -0.76, -0.7, -2.53, -6.79, -9.72, -10.04, -10.18, -9.6, -7.6, -5.81, -4.47, -3.58, -3.47, -4.6, -6.64, -7.73, -8.48, -8.14, -6.52, -5.37, -6.0, -7.95, -10.38, -11.2, -9.67, -7.13, -5.21, -3.8, -0.67, 0.0, 1.49, 3.07, 4.8, 4.46, 4.84, 4.81, 4.74, 4.36, 4.03, 3.09, 3.09, 2.35, 2.4, 2.2, 2.3, 2.2, 2.35, 0.72, 0.0, 0.0, 0.0, 0.0, -0.78, -1.58, -1.54, 0.0, 1.51, 1.49, 0.73, 0.0, -1.36, -5.69, -7.33, -7.98, -8.55, -9.86, -10.35, -10.24, -9.56, -8.53, -8.24, -3.6, 1.79, 3.07, 2.51, 2.12, 2.26, 2.2, -5.98, -5.98, -5.72, -5.72, -5.72, -5.72, -5.69, -5.35, -5.29, -4.94, -5.6, -6.36, -8.67, -8.82, -7.82, -6.18, -6.08, -6.08, -3.79, -1.9, 0.0, 0.0, 0.0, -2.47, -6.07, -7.95, -7.31, -5.36, -6.61, -7.6, -8.94, -10.73, -11.12, -10.52, -9.33, -7.6, -8.22, -9.21, -8.4, -8.34, -7.76, -7.4, -7.81, -3.74, -1.7, -0.89, -2.12, -1.49, 0.54, 2.4, 4.34, 3.74, 4.8, 5.05, 5.09, 5.09, 4.65, 4.56, 3.91, 2.99, 2.31, 1.45, 1.41, 1.4, 2.21, 2.2, 1.52, 0.78, 0.0, 0.0, 0.0, -0.67, -2.33, -2.81, -2.06, -1.55, 0.0, 1.52, 0.75, 0.0, 0.0, -3.47, -5.69, -7.33, -8.0, -8.66, -9.14, -9.0, -7.59, -6.95, -3.79, -0.57, 1.26, 1.61, 2.0, 2.12, 2.18, 2.2, -5.98, -5.98, -5.72, -5.72, -5.72, -6.01, -5.37, -5.35, -5.01, -5.86, -6.41, -8.0, -9.2, -11.81, -11.37, -10.85, -10.96, -11.5, -10.38, -9.75, -8.79, -8.34, -6.69, -6.4, -7.64, -7.37, -5.94, -4.02, -8.43, -10.73, -12.02, -13.36, -13.86, -12.52, -11.62, -8.67, -6.99, -7.67, -8.72, -5.24, -2.5, -1.86, -0.6, 0.89, 1.79, 1.79, 0.89, 0.89, 1.34, 3.13, 3.13, 3.32, 4.4, 4.46, 5.09, 5.06, 4.56, 3.91, 3.15, 2.23, 1.52, 1.45, 2.16, 1.9, 2.86, 2.07, 2.2, 1.45, 0.0, 0.0, -0.8, -1.39, -2.16, -2.12, -2.09, -1.41, -1.52, -1.56, -1.36, -0.69, 0.0, 0.0, -3.16, -4.93, -5.6, -5.69, -6.35, -6.35, -5.64, -4.07, -2.23, -1.0, -0.61, 0.0, 0.57, 1.36, 1.49, 1.41, -5.98, -5.98, -5.72, -5.72, -5.72, -5.71, -5.65, -5.35, -5.59, -5.88, -6.79, -8.37, -9.58, -11.08, -11.5, -12.29, -13.75, -14.53, -14.9, -15.58, -16.76, -16.7, -15.66, -13.19, -11.38, -9.8, -8.37, -8.43, -10.73, -12.52, -12.35, -10.16, -4.47, -3.39, -6.55, -10.28, -10.18, -8.34, -4.0, -0.6, 1.34, 0.63, 1.6, 2.68, 2.24, 1.79, 1.79, 1.34, 1.34, 2.24, 2.68, 2.4, 2.5, 3.07, 4.01, 3.79, 2.99, 2.23, 0.77, 0.0, 0.0, 0.72, 2.15, 3.32, 3.45, 3.07, 2.8, 2.35, 0.72, -0.69, -2.28, -2.76, -3.53, -2.85, -2.09, -2.13, -2.82, -3.69, -4.01, -4.55, -3.53, -0.72, 0.0, -2.53, -2.5, -3.14, -4.11, -4.74, -4.71, -3.15, -2.51, -3.16, -3.48, -1.8, 0.0, 0.71, 1.45, 1.35, -5.72, -5.98, -5.72, -5.72, -5.72, -5.71, -5.37, -5.65, -5.65, -6.28, -6.92, -7.81, -9.08, -9.37, -9.37, -9.59, -9.86, -11.88, -13.82, -15.51, -15.02, -14.53, -14.72, -14.79, -9.4, -8.8, -8.0, -5.6, -5.86, -5.73, -4.41, -2.91, 0.0, 0.6, -1.7, -3.53, -3.87, -1.7, 0.0, 1.79, 1.79, 0.89, 0.63, 0.95, 0.95, 0.89, 0.63, 0.63, 0.63, 0.0, 0.0, 0.0, 0.0, 0.65, 1.49, 1.41, 1.49, 0.77, 0.0, -0.73, 0.0, 1.4, 2.8, 3.07, 2.91, 2.51, 3.55, 2.9, 0.74, -0.79, -2.63, -4.08, -4.31, -3.96, -3.11, -3.14, -3.04, -4.58, -5.68, -5.68, -3.95, -0.78, 0.0, 0.0, -1.2, -1.88, -3.43, -4.11, -4.11, -3.16, -3.79, -5.36, -5.36, -2.48, -1.41, 0.0, 0.72, 2.0, -5.72, -5.98, -5.72, -5.72, -5.72, -5.71, -5.69, -5.65, -5.98, -6.62, -6.95, -7.86, -8.45, -9.08, -8.56, -8.56, -7.6, -7.55, -8.94, -10.96, -11.07, -10.15, -10.04, -6.44, -2.6, -1.55, -1.03, -1.07, -0.54, -0.52, 0.0, 0.0, 0.63, 0.66, 0.0, 0.0, 0.63, 1.7, 1.7, 1.34, 0.45, -0.63, -1.34, -0.95, -0.6, -1.34, -2.54, -2.23, -1.86, -2.12, -2.63, -3.13, -3.07, -2.5, -1.74, -1.99, -0.96, 0.0, 0.0, -0.59, 0.0, 1.7, 2.68, 2.68, 2.17, 2.5, 3.16, 4.36, 2.88, 2.29, 0.78, -0.79, -2.9, -3.21, -3.85, -4.65, -4.55, -4.75, -4.31, -2.9, -1.33, -0.66, -1.36, -1.52, 0.0, -0.7, -2.73, -3.15, -2.79, -2.48, -3.15, -4.12, -4.09, -2.73, -2.26, 0.0, 1.23, 1.8, -5.72, -5.72, -5.72, -5.72, -5.72, -5.71, -5.69, -5.65, -5.69, -6.32, -6.95, -7.59, -7.9, -8.53, -9.17, -8.87, -7.61, -6.08, -6.34, -7.27, -7.32, -6.97, -6.71, -4.42, -1.69, 0.0, 0.0, 0.56, 1.1, 1.1, 1.17, 0.0, 0.0, -0.66, 0.0, 0.89, 1.79, 2.24, 1.34, 0.89, 0.0, -1.79, -3.13, -5.94, -6.36, -6.17, -4.87, -5.94, -5.94, -5.73, -4.82, -6.71, -8.87, -10.04, -9.6, -7.56, -4.0, -0.87, 0.0, 0.0, -0.0, 1.26, 2.12, 2.12, 1.79, 1.79, 2.4, 3.07, 5.24, 4.43, 4.74, 1.61, -0.54, -2.07, -3.8, -5.3, -4.6, -3.09, -1.41, -0.65, -1.2, -2.3, -3.33, -2.83, -0.67, -0.74, -1.47, -1.84, -1.84, -1.27, -1.94, -2.23, -2.73, -3.11, -2.06, 0.0, 1.41, 1.8, -5.72, -5.72, -5.72, -5.72, -5.72, -5.71, -5.69, -5.69, -6.01, -6.64, -6.97, -7.3, -7.93, -8.24, -8.56, -9.19, -8.58, -7.61, -6.08, -6.35, -6.34, -6.31, -5.83, -4.48, -2.82, -1.64, -1.14, -0.57, 0.0, 0.0, 0.0, -0.57, -1.01, -1.01, 0.0, 1.79, 3.82, 2.6, 2.8, 0.63, 0.0, -2.0, -4.82, -6.17, -6.17, -5.26, -5.81, -6.71, -7.98, -7.81, -8.43, -9.33, -9.6, -7.81, -5.29, -6.26, -5.81, -3.45, -1.33, 0.0, -0.0, -0.0, 0.8, 0.95, 0.63, 0.89, 0.89, 0.6, 1.49, 2.86, 3.39, 3.07, 1.26, 0.0, -1.33, -2.11, -0.59, 0.0, 0.0, -0.76, -1.84, -3.72, -3.47, -3.47, -3.32, -1.55, -1.55, -0.73, -0.59, -0.73, -1.47, -1.88, -2.88, -2.04, -0.69, 1.23, 1.23, 1.23, -5.72, -5.72, -5.72, -5.72, -5.72, -5.72, -5.69, -5.69, -5.71, -6.34, -6.97, -7.6, -7.61, -7.95, -8.24, -8.87, -9.17, -8.24, -7.33, -6.7, -6.33, -6.7, -6.27, -5.8, -4.58, -3.39, -2.37, -1.72, -1.14, -0.57, 0.0, -0.57, -1.15, -1.05, 0.0, 1.26, 2.4, 3.45, 3.48, 0.0, 0.0, -1.2, -2.21, -2.24, -3.13, -2.68, -1.6, -1.6, -1.79, -4.47, -7.15, -5.36, -3.95, -0.95, 0.0, -1.79, -4.02, -3.32, -1.2, -0.45, -0.0, 0.0, 0.0, 0.0, 0.0, 0.0, -0.45, 0.0, 1.26, 2.6, 2.17, 2.15, 2.8, 2.24, 0.99, 1.88, 2.53, 2.3, 0.7, 0.0, 0.0, -0.79, -1.55, -2.4, -2.98, -4.81, -3.0, -2.11, -1.55, -1.55, -1.41, -2.6, -2.2, -0.61, 0.0, 0.0, 0.0, 0.0, -5.72, -5.72, -5.72, -5.72, -5.72, -5.72, -5.71, -6.01, -5.71, -6.34, -6.97, -7.27, -7.61, -7.61, -7.61, -7.95, -8.56, -8.87, -7.96, -7.33, -6.31, -6.31, -5.64, -4.68, -3.44, -2.85, -2.26, -1.74, -1.16, -0.6, -0.57, -0.59, -0.6, -1.02, -1.47, 0.0, 1.24, 1.4, 0.0, 0.0, -2.23, -1.9, -1.9, -1.2, -1.34, -1.34, 0.0, 0.0, 0.45, 0.45, 0.0, -0.45, 0.0, 2.68, 2.68, 0.0, -1.26, 0.0, 0.0, 0.0, 0.0, 1.26, 0.0, 0.0, 0.0, 0.0, -0.89, -0.89, 0.0, 0.95, -0.0, -0.0, 1.2, 1.7, 1.9, 3.45, 7.03, 7.02, 5.3, 3.43, 2.79, 2.07, 0.59, 0.0, -1.16, -2.8, -3.48, -2.51, -3.07, -2.8, -2.6, -2.4, -2.51, -1.8, -1.52, -0.62, -0.61, -0.61, -5.72, -5.72, -5.72, -5.72, -5.72, -5.72, -5.71, -5.71, -6.01, -6.34, -6.97, -6.98, -7.33, -7.33, -7.33, -6.97, -7.95, -8.56, -7.96, -6.96, -5.64, -5.64, -5.02, -3.39, -1.72, -1.73, -2.31, -2.36, -1.76, -1.81, -2.32, -2.38, -1.79, -1.78, -2.34, -2.31, -1.33, -1.8, -2.76, -2.68, -2.41, -3.2, -2.23, -1.6, -0.89, -0.45, 0.0, 2.24, 2.68, 3.13, 3.58, 3.58, 3.58, 3.13, 2.8, 2.8, 1.4, 2.53, 2.8, 1.9, 1.2, 0.0, 0.0, 0.95, 3.13, 1.2, -0.45, -2.24, -2.6, -1.9, -1.58, -0.6, 0.0, 0.59, 0.65, 2.4, 3.83, 5.94, 6.14, 5.3, 4.43, 3.48, 1.8, 0.0, -1.26, -2.24, -3.13, -3.32, -3.49, -3.72, -3.0, -1.35, -1.84, -2.51, -1.94, -1.41, -0.64, -0.64, -5.72, -5.72, -5.72, -5.72, -5.72, -5.72, -5.71, -5.71, -5.72, -6.34, -6.35, -6.7, -7.61, -7.33, -6.98, -7.36, -7.61, -7.93, -6.7, -5.69, -4.98, -5.83, -5.67, -4.71, -3.95, -4.38, -4.74, -4.71, -4.85, -4.6, -4.83, -4.23, -4.09, -3.53, -3.52, -4.13, -5.72, -6.64, -6.68, -5.06, -3.14, -3.32, -2.24, -0.45, -0.0, 0.95, 1.79, 2.4, 2.68, 3.13, 3.13, 3.58, 4.02, 4.02, 4.47, 4.77, 2.84, 2.23, 1.13, 0.0, 0.0, 0.0, 0.0, 1.34, 2.5, 1.88, -0.0, -1.7, -2.53, -2.07, -0.81, 0.0, 1.52, 1.48, 0.74, 0.0, -0.54, 0.0, 0.79, 2.12, 1.23, 0.63, 0.0, -0.59, -1.0, -1.9, -2.4, -1.86, -3.45, -3.14, -1.84, -0.63, -1.35, -2.0, -2.0, -1.47, -0.7, -0.7, -5.72, -5.72, -5.72, -5.72, -5.72, -5.72, -5.72, -6.01, -5.72, -6.06, -6.35, -6.7, -6.98, -6.97, -7.33, -7.61, -7.6, -7.23, -6.68, -6.14, -7.01, -8.2, -7.96, -7.73, -8.76, -9.6, -9.39, -8.81, -8.77, -7.84, -7.12, -6.41, -5.9, -5.2, -4.83, -5.34, -6.27, -7.33, -6.69, -4.47, -3.16, -2.4, -0.89, -0.0, 0.63, 0.95, 2.0, 2.68, 2.68, 3.13, 3.58, 4.47, 4.47, 4.92, 2.68, 2.91, 4.43, 1.88, 0.0, -1.4, -1.9, -0.89, 0.0, 2.23, 2.21, 1.88, 1.24, 0.45, 0.54, 0.66, 2.26, 3.16, 3.2, 1.57, 0.0, -3.8, -6.44, -7.07, -2.2, -0.76, 0.0, 0.0, 0.0, -0.63, -1.27, -1.13, 0.0, 0.54, -1.24, -1.26, -1.9, -1.27, -1.52, -2.11, -2.73, -2.2, -0.7, -0.7, -5.72, -5.72, -5.72, -5.72, -5.72, -5.45, -5.72, -5.72, -5.72, -6.06, -6.35, -6.7, -6.98, -6.97, -7.61, -7.61, -6.98, -6.95, -7.8, -9.27, -10.34, -10.76, -10.75, -10.4, -10.43, -11.38, -11.08, -11.4, -10.74, -10.08, -9.4, -8.3, -7.6, -7.12, -6.41, -5.78, -6.4, -6.94, -6.97, -4.83, -2.77, -1.08, -0.51, 0.0, 0.0, 0.0, 1.79, 2.68, 2.68, 3.58, 4.24, 4.77, 4.77, 4.92, 5.36, 2.91, 4.09, 4.09, 0.99, -1.26, -1.79, -0.63, -0.0, 1.41, 1.24, 1.49, 1.9, 2.17, 3.13, 5.34, 7.07, 6.2, 4.61, 0.78, -1.53, -6.33, -11.73, -10.48, -7.32, -3.72, -1.35, -0.72, 0.0, 0.0, 0.0, 0.0, 0.53, 1.16, 1.11, 0.0, -1.84, -2.48, -2.9, -2.8, -2.79, -2.23, -1.27, -1.27, -5.32, -5.32, -5.32, -5.72, -5.46, -5.72, -5.72, -5.72, -5.72, -6.06, -6.35, -6.7, -6.98, -6.97, -7.61, -7.33, -6.98, -6.97, -8.19, -9.77, -10.75, -11.36, -11.33, -11.33, -11.06, -10.76, -10.76, -10.47, -10.47, -9.83, -10.1, -9.42, -8.74, -8.3, -7.6, -6.93, -6.8, -7.13, -7.6, -6.33, -4.42, -2.86, -1.61, -1.53, -1.11, 0.0, 1.79, 2.24, 2.24, 3.39, 4.24, 4.77, 4.77, 4.92, 4.92, 5.26, 4.87, 5.64, 3.72, 0.0, -1.34, -0.6, 1.24, 1.24, 1.58, 1.86, 2.23, 2.4, 3.07, 3.58, 3.74, 6.32, 5.28, 1.41, -4.43, -9.6, -13.18, -12.66, -10.88, -7.73, -3.48, -1.23, 0.0, 1.41, 1.3, 1.23, 0.59, 0.0, 0.0, 0.0, -2.54, -4.71, -4.14, -3.32, -1.84, -1.2, -1.33, -1.33, -5.32, -5.32, -5.32, -5.32, -5.46, -5.72, -5.72, -5.72, -6.01, -6.35, -6.35, -6.34, -6.98, -6.97, -6.97, -6.97, -6.7, -6.98, -7.61, -8.87, -9.21, -9.82, -10.09, -10.69, -10.45, -10.47, -10.11, -9.47, -8.81, -8.81, -8.55, -8.79, -8.11, -8.33, -7.63, -7.16, -6.96, -7.06, -7.59, -6.97, -6.34, -5.04, -3.76, -2.83, -2.1, -0.55, 0.0, 1.26, 1.79, 3.2, 3.82, 4.34, 4.34, 4.47, 4.92, 5.36, 4.02, 4.02, 3.22, 1.16, 0.0, -0.45, 1.26, 2.23, 2.8, 2.8, 2.6, 2.17, 2.4, 1.86, 1.2, 1.26, 0.71, 0.0, -1.34, -5.81, -9.89, -11.8, -11.3, -9.89, -6.42, -3.14, -1.13, 0.0, 0.63, 1.23, 0.57, 0.0, -0.57, -0.67, -2.72, -4.36, -4.11, -2.51, -1.2, -1.0, -1.27, -1.27, -5.08, -5.08, -5.32, -5.32, -5.08, -5.72, -5.72, -5.72, -5.72, -6.0, -6.35, -6.34, -6.98, -6.97, -6.97, -6.97, -6.98, -6.98, -7.61, -7.96, -8.22, -8.23, -8.58, -9.17, -9.82, -10.13, -9.47, -9.19, -8.14, -8.14, -7.48, -7.7, -7.45, -7.66, -7.42, -6.96, -6.96, -6.56, -6.9, -6.71, -6.35, -5.46, -4.4, -3.45, -2.86, -1.65, -1.05, 0.0, 1.34, 3.13, 3.82, 4.02, 4.47, 4.47, 4.47, 4.92, 2.63, 2.6, 2.12, 1.4, 0.0, -0.57, 0.63, 2.23, 3.74, 3.95, 3.13, 4.92, 2.6, 1.86, -0.0, -1.66, -0.7, 0.0, 0.8, -0.89, -4.92, -8.67, -9.8, -8.67, -7.33, -5.02, -3.35, -2.23, -1.27, -0.57, 0.0, -0.57, -1.27, -0.63, -0.76, -1.13, -1.61, -1.2, -1.2, -1.8, -2.44, -2.44, -5.08, -5.08, -5.32, -5.32, -5.32, -5.08, -5.72, -5.72, -5.72, -6.0, -6.35, -6.34, -6.61, -6.71, -6.97, -6.71, -6.98, -6.98, -7.33, -7.59, -7.57, -7.85, -7.6, -7.96, -8.87, -9.49, -9.2, -9.47, -8.79, -8.37, -7.7, -7.0, -7.0, -7.0, -6.96, -6.48, -6.48, -6.52, -6.43, -6.07, -5.72, -5.09, -4.42, -3.94, -3.3, -2.89, -2.16, -0.61, 0.0, 1.2, 2.68, 4.02, 4.47, 4.47, 4.02, 4.02, 4.02, 1.49, 0.0, 0.0, 0.0, 0.0, 0.0, 1.9, 4.15, 3.51, 3.58, 3.58, 3.58, 0.45, -1.9, -2.98, -1.04, 1.45, 3.07, 3.95, 1.23, -1.88, -7.4, -7.47, -7.56, -7.06, -6.13, -4.37, -3.16, -2.79, -1.8, -1.8, -1.8, -0.61, 1.33, 1.23, 0.66, 0.0, -1.13, -2.48, -2.44, -2.44, -5.08, -5.08, -5.08, -5.32, -5.32, -5.08, -5.34, -5.72, -5.72, -6.0, -6.35, -6.34, -6.34, -6.71, -6.97, -6.71, -6.98, -6.98, -7.33, -7.6, -7.57, -7.59, -7.6, -7.96, -8.59, -9.22, -9.48, -9.47, -9.19, -9.04, -8.11, -7.66, -7.66, -6.96, -6.96, -6.48, -6.48, -5.98, -5.88, -5.62, -5.08, -4.46, -3.8, -3.76, -3.45, -2.83, -1.63, -0.61, 0.0, 0.61, 2.21, 3.53, 4.92, 4.92, 4.47, 3.58, 3.13, 2.68, 0.0, -0.63, 0.0, 0.0, 0.0, 1.79, 2.6, 2.68, 3.13, 3.58, 2.24, 0.89, -1.26, -2.15, -0.8, 0.77, 3.87, 7.01, 7.03, 1.36, -3.49, -7.28, -8.82, -8.52, -8.0, -6.25, -4.27, -3.14, -2.79, -2.79, -1.88, 0.0, 0.42, 1.94, 1.84, 0.59, -0.61, -1.41, -2.0, -2.0, -5.08, -5.08, -5.08, -5.08, -5.32, -5.08, -5.08, -5.72, -5.72, -5.72, -5.98, -6.34, -6.34, -6.33, -6.97, -6.71, -6.98, -6.98, -7.33, -7.6, -7.59, -7.59, -7.6, -7.96, -8.23, -8.86, -9.21, -9.2, -9.47, -9.45, -8.77, -9.0, -8.3, -8.3, -7.63, -7.16, -6.44, -6.44, -5.78, -5.88, -5.83, -5.7, -5.08, -3.97, -3.3, -2.19, -1.16, -0.56, 0.0, 0.0, 1.6, 3.2, 4.02, 4.3, 2.12, 1.79, 2.68, 2.24, 0.89, 0.0, -0.6, 0.0, 0.0, 1.86, 4.92, 2.24, 3.13, 2.24, 0.89, 0.0, -0.57, -1.88, -2.29, -0.76, 3.21, 6.2, 5.2, 3.51, -1.84, -6.55, -9.11, -9.86, -9.34, -7.06, -5.2, -4.52, -3.16, -3.14, -1.26, -0.45, -1.2, -1.16, 0.61, 0.0, 0.0, 0.0, 0.0, 0.0, -5.08, -5.08, -5.08, -5.08, -5.08, -5.08, -5.08, -5.34, -5.72, -5.72, -5.98, -6.08, -6.34, -6.33, -6.33, -6.71, -6.98, -6.98, -6.97, -7.6, -7.59, -7.59, -7.6, -7.87, -8.23, -8.58, -9.21, -9.48, -9.2, -9.47, -9.19, -8.77, -9.0, -8.3, -8.3, -7.63, -6.93, -6.44, -6.44, -5.81, -6.2, -6.06, -5.06, -3.78, -2.19, -0.56, 0.0, -0.57, -0.55, 0.0, 0.57, 2.79, 4.02, 4.3, 3.39, 1.7, 2.68, 2.24, 1.2, -0.0, -0.63, -0.61, 0.0, 1.9, 2.68, 4.92, 3.07, 1.79, 0.0, 0.0, 0.0, -1.16, -2.3, -2.07, -0.66, 0.0, 0.0, 0.63, -0.54, -3.97, -7.89, -11.12, -11.08, -8.0, -6.85, -6.42, -5.02, -3.39, -2.12, -2.12, -2.91, -3.14, -0.63, -0.69, 0.0, 0.0, 0.0, 0.0, -5.08, -5.08, -5.08, -5.08, -5.08, -5.08, -5.08, -5.08, -5.72, -5.72, -5.98, -6.08, -6.34, -6.33, -6.33, -6.33, -6.98, -6.98, -6.97, -7.33, -7.59, -7.59, -7.6, -7.6, -7.96, -7.96, -8.2, -8.83, -9.48, -9.2, -9.47, -9.04, -8.77, -8.77, -8.08, -7.63, -7.63, -7.12, -6.44, -6.27, -5.67, -6.25, -5.69, -4.6, -2.18, 0.0, 0.0, -1.16, -2.3, -1.09, 0.0, 1.88, 3.13, 3.39, 3.2, 2.91, 2.4, 2.4, 0.95, -0.0, -0.63, -0.65, 0.0, 1.7, 2.68, 3.58, 3.53, 2.4, 0.63, 0.0, -0.42, 0.0, -1.41, -4.36, -7.69, -7.59, -5.13, -2.0, -0.71, -2.6, -4.24, -10.71, -11.99, -9.63, -6.25, -5.2, -4.43, -4.02, -3.82, -3.6, -4.3, -4.52, -3.78, -1.84, -0.69, 0.0, 0.0, 0.0, -5.34, -5.34, -5.08, -5.08, -5.08, -5.08, -5.08, -5.08, -5.46, -5.46, -5.72, -5.7, -6.34, -6.33, -6.33, -6.33, -6.98, -6.98, -6.97, -6.96, -7.33, -7.33, -7.6, -7.6, -7.33, -7.57, -7.55, -7.93, -8.18, -8.56, -8.81, -8.79, -8.79, -8.53, -8.33, -7.88, -7.63, -6.93, -6.93, -6.44, -5.81, -6.2, -6.31, -4.71, -2.8, -0.79, -1.54, -3.53, -4.48, -2.92, 0.0, 1.26, 2.24, 2.63, 2.91, 2.91, 2.5, 2.5, 1.49, 0.95, 0.0, 0.0, 0.6, 1.34, 2.24, 3.07, 3.13, 2.23, 1.2, 0.0, -1.24, -0.7, 0.0, -1.47, -7.08, -9.48, -8.16, -5.0, -1.84, -1.2, -3.07, -9.2, -11.6, -10.68, -8.55, -3.72, -3.53, -4.02, -4.43, -4.73, -4.87, -3.97, -3.07, -2.98, -1.41, -0.62, 0.0, 0.0, -5.34, -5.34, -5.08, -5.08, -5.08, -5.08, -5.08, -5.08, -5.08, -5.72, -5.72, -5.98, -6.34, -6.33, -6.33, -6.33, -6.33, -6.98, -6.71, -7.24, -7.6, -7.33, -7.6, -7.6, -7.6, -7.59, -7.55, -7.55, -6.88, -7.76, -8.16, -8.4, -8.14, -8.14, -8.37, -7.66, -7.42, -7.16, -6.93, -6.44, -6.48, -6.36, -6.29, -4.83, -3.84, -3.91, -6.1, -6.4, -5.02, -1.57, 0.54, 1.2, 1.2, 1.79, 2.24, 2.63, 2.49, 2.91, 2.5, 1.26, 0.63, 0.45, 1.2, 0.0, 0.89, 1.7, 1.7, 0.89, 0.0, 0.0, -1.16, -1.2, 0.0, 2.31, 0.0, -5.48, -7.79, -6.31, -3.64, -1.94, -2.23, -4.66, -9.07, -9.76, -8.38, -6.28, -4.11, -3.07, -2.91, -3.07, -2.68, -2.24, -2.0, -1.84, -1.88, -1.36, 0.0, 0.0, -5.34, -5.34, -5.08, -5.08, -5.08, -5.08, -5.08, -5.08, -5.08, -5.72, -5.72, -5.72, -5.7, -6.33, -6.33, -6.33, -6.33, -6.33, -6.71, -6.97, -6.96, -6.94, -7.6, -7.6, -7.6, -7.59, -7.57, -6.92, -7.01, -6.92, -8.18, -8.81, -8.55, -8.14, -8.14, -7.7, -7.66, -7.63, -7.16, -6.93, -6.48, -6.52, -6.25, -5.72, -4.46, -5.32, -6.25, -5.57, -2.71, 0.0, 1.23, 1.19, 0.55, 0.57, 0.61, 1.7, 1.79, 2.17, 2.4, 2.5, 1.6, 0.89, 0.4, 0.0, 0.63, 1.79, 1.2, 0.0, -0.71, -0.79, -0.59, 0.0, 0.0, 0.0, 1.5, -0.75, -4.6, -4.65, -3.64, -3.33, -2.12, -1.23, -2.51, -5.08, -6.32, -5.71, -4.08, -3.0, -1.27, -0.53, -0.6, -0.45, -0.6, -0.53, -1.35, -0.67, 0.0, 0.0, -5.34, -5.34, -5.34, -5.08, -5.08, -5.08, -5.08, -5.08, -5.32, -5.72, -5.72, -5.72, -5.7, -5.95, -6.33, -6.33, -6.33, -6.33, -6.33, -6.97, -6.96, -7.22, -6.94, -7.6, -7.6, -7.59, -7.59, -7.59, -6.94, -7.69, -8.2, -8.81, -9.07, -8.79, -8.14, -8.14, -8.11, -7.88, -7.63, -7.16, -7.16, -6.52, -6.43, -5.69, -5.09, -4.63, -4.68, -3.37, -1.12, 0.0, 0.56, 0.56, 0.57, 0.53, 0.0, 0.0, 0.0, 1.6, 1.79, 2.24, 2.17, 1.2, 1.9, 0.63, 1.34, 1.79, 1.7, 0.0, -0.8, -0.76, 0.0, 1.34, 0.0, -1.8, -1.46, 0.0, -0.77, -1.24, -1.2, -1.3, -0.69, 0.0, 0.0, -0.69, -2.3, -3.49, -3.3, -2.97, -0.74, 0.0, 0.0, 0.0, 0.63, 1.24, 2.86, 0.66, 3.16, 3.16, -5.34, -5.34, -5.34, -5.08, -5.08, -5.08, -5.08, -5.08, -5.32, -5.32, -5.72, -5.72, -5.7, -5.95, -6.33, -6.33, -6.33, -6.33, -6.33, -6.58, -6.7, -6.96, -6.94, -7.6, -7.6, -7.59, -7.59, -7.59, -7.57, -7.95, -7.95, -8.46, -8.83, -8.81, -8.81, -8.14, -8.37, -8.11, -7.63, -7.63, -7.16, -7.2, -6.4, -5.67, -5.32, -4.4, -3.39, -2.23, -1.11, -0.56, 0.0, 0.0, 0.0, 0.0, 0.0, 0.0, 0.0, 0.0, 1.26, 2.17, 3.13, 3.13, 3.13, 2.68, 1.34, 1.34, 1.6, 0.32, 0.0, 0.0, 0.99, 1.58, 0.0, -3.79, -5.38, -2.32, 0.76, 2.31, 1.98, 1.32, 0.0, 0.0, -0.7, -0.71, -1.42, -2.28, -2.9, -2.34, -1.45, 0.0, 0.57, 1.7, 2.4, 3.97, 5.36, 4.52, 6.85, 6.85, -5.34, -5.34, -5.34, -5.34, -5.08, -5.08, -5.08, -5.08, -5.32, -5.32, -5.72, -5.72, -5.7, -5.95, -5.69, -6.33, -6.33, -6.33, -6.33, -6.33, -6.31, -6.96, -6.94, -6.94, -7.6, -7.33, -7.59, -7.59, -7.57, -7.8, -7.55, -7.55, -8.2, -8.18, -8.56, -8.4, -8.14, -8.11, -8.33, -7.63, -7.42, -7.0, -6.43, -5.67, -4.66, -3.76, -3.42, -2.35, -1.73, -1.65, -1.18, -0.56, -0.57, -0.54, -0.58, -0.59, -1.12, -0.53, 0.0, 2.15, 3.07, 3.58, 3.13, 2.68, 2.24, 2.24, 0.95, -0.0, -0.0, -0.0, 0.45, 1.24, 0.88, -1.45, -3.04, -1.57, 2.35, 5.35, 5.51, 3.04, 0.0, -1.38, -2.66, -2.71, -2.06, -2.34, -2.32, -1.44, -0.72, 0.0, 1.84, 4.3, 6.07, 5.64, 4.92, 4.43, 6.36, 6.36, -5.34, -5.34, -5.34, -5.34, -5.08, -5.08, -5.08, -5.08, -5.32, -5.32, -5.72, -5.46, -5.7, -5.7, -5.69, -5.92, -6.33, -6.33, -6.33, -6.33, -6.31, -6.96, -6.94, -6.94, -6.94, -7.33, -7.33, -7.59, -7.57, -7.55, -7.55, -7.13, -6.9, -7.55, -7.53, -8.16, -8.16, -8.14, -7.66, -7.66, -7.66, -7.0, -6.22, -4.6, -3.52, -2.97, -2.9, -2.35, -2.25, -2.28, -1.65, -1.75, -1.12, -1.14, -1.14, -1.71, -1.61, -1.12, -0.59, 1.16, 2.5, 3.07, 2.68, 1.2, 1.2, 1.26, 0.63, 0.6, -0.0, -0.0, -0.0, 0.8, 1.49, 2.15, 0.0, 0.0, 0.8, 3.07, 3.07, 0.71, -0.7, -1.38, -1.97, -2.0, -1.28, -1.44, -1.4, -0.76, 0.0, 0.0, 3.53, 5.6, 5.43, 3.95, 3.58, 3.32, 4.0, 4.0, -5.34, -5.34, -5.34, -5.34, -5.34, -5.08, -5.08, -5.08, -5.32, -5.32, -5.72, -5.46, -5.7, -5.7, -5.69, -5.69, -6.33, -6.33, -6.33, -6.33, -6.31, -6.56, -6.7, -6.94, -6.94, -6.94, -6.94, -7.19, -7.57, -7.55, -7.55, -7.13, -6.9, -6.9, -6.88, -7.53, -7.5, -7.9, -7.7, -7.66, -7.45, -7.03, -5.83, -3.78, -2.21, -2.28, -2.75, -2.75, -2.77, -2.8, -2.8, -2.3, -1.67, -1.78, -1.78, -1.69, -1.71, -1.1, 0.0, 0.51, 1.88, 2.5, 2.8, 1.2, 0.6, 1.58, 0.89, 1.26, 0.71, -0.0, 0.57, 1.2, 2.21, 3.25, 1.48, -0.77, -2.23, -2.25, -2.98, -2.79, -2.11, -0.68, 0.0, -0.67, -0.59, -0.69, -0.71, 0.0, 0.0, 0.99, 3.58, 4.52, 3.82, 2.68, 2.6, 2.5, 2.15, 3.14, -5.34, -5.34, -5.34, -5.34, -5.34, -5.08, -5.08, -5.08, -5.32, -5.32, -5.32, -5.46, -5.7, -5.7, -5.69, -5.69, -5.92, -6.33, -6.33, -6.33, -6.58, -6.31, -6.56, -6.94, -6.94, -6.94, -6.94, -6.94, -6.92, -7.57, -7.55, -7.13, -6.9, -6.46, -6.9, -6.88, -7.1, -7.73, -7.48, -7.7, -7.7, -6.85, -5.0, -3.06, -1.67, -1.76, -3.34, -4.02, -3.89, -3.94, -3.49, -2.83, -2.33, -2.33, -2.33, -2.33, -1.71, -1.63, 0.0, 0.0, 1.16, 1.88, 2.53, 1.26, 0.6, 1.58, 1.34, 0.6, 0.57, -0.0, 0.54, 0.6, 0.6, 0.76, 1.59, 0.74, -1.44, -4.4, -6.32, -5.65, -3.47, -1.39, -0.68, 0.0, 0.0, 0.0, 0.0, 0.0, 0.63, 1.84, 3.53, 4.02, 3.58, 2.6, 1.9, 1.2, 1.16, 2.15, -5.34, -5.34, -5.34, -5.34, -5.34, -5.34, -5.08, -5.08, -5.32, -5.32, -5.32, -5.46, -5.7, -5.7, -5.95, -5.69, -5.92, -5.92, -6.33, -6.33, -6.33, -6.31, -6.56, -6.29, -6.94, -6.94, -6.94, -6.94, -6.92, -7.16, -6.9, -6.9, -6.9, -6.9, -6.46, -6.46, -6.43, -6.85, -7.73, -7.73, -7.73, -6.22, -5.02, -4.03, -3.06, -2.93, -4.55, -5.73, -5.83, -5.26, -4.2, -3.35, -2.86, -2.86, -2.33, -2.33, -2.23, -0.58, 0.0, 0.0, 0.57, 1.13, 1.88, 1.4, 1.2, 1.0, 0.0, -0.0, -0.0, 0.57, 0.71, -0.0, -1.2, -0.79, 1.05, 4.76, 3.73, 0.0, -3.85, -4.92, -4.05, -2.76, -2.06, -0.67, 0.0, 0.0, 0.69, 0.69, 1.23, 2.51, 3.14, 3.07, 2.68, 1.9, 0.65, 0.61, 0.0, 1.16, -5.09, -5.09, -5.34, -5.34, -5.34, -5.34, -5.08, -5.08, -5.32, -5.32, -5.32, -5.72, -5.7, -5.7, -5.95, -5.69, -5.92, -5.92, -5.92, -6.33, -6.33, -6.31, -6.31, -6.29, -6.94, -6.94, -6.94, -6.94, -7.19, -6.92, -7.16, -6.9, -7.16, -6.92, -6.25, -6.46, -6.46, -6.43, -6.85, -7.5, -7.1, -6.5, -5.26, -4.69, -5.32, -6.1, -6.56, -7.06, -6.92, -5.7, -4.03, -3.37, -2.86, -2.86, -2.69, -2.86, -2.23, -1.14, -0.59, 0.0, 0.0, 0.59, 1.13, 1.6, 1.4, 1.4, 0.0, 0.0, -0.0, 0.57, -0.0, -0.6, -2.24, -2.21, 0.0, 3.08, 5.28, 3.14, 0.71, -0.73, -2.23, -2.51, -1.88, -1.4, 0.0, 0.0, 0.69, 1.41, 1.88, 1.94, 2.0, 1.8, 1.27, 0.66, 0.0, 0.0, 0.0, 0.0, -5.09, -5.09, -5.34, -5.34, -5.34, -5.34, -5.08, -5.08, -5.08, -5.32, -5.32, -5.72, -5.7, -5.7, -5.7, -5.69, -5.69, -5.92, -5.92, -5.92, -6.33, -6.31, -6.31, -6.29, -6.29, -6.94, -6.94, -6.94, -6.94, -6.92, -7.16, -7.16, -6.92, -6.92, -6.5, -6.46, -6.46, -6.22, -6.43, -7.1, -6.88, -6.27, -5.69, -5.32, -5.7, -6.5, -6.6, -6.43, -5.67, -4.45, -3.4, -3.4, -3.37, -2.86, -2.83, -2.86, -1.63, -1.12, -1.14, -0.59, 0.0, 0.0, 0.0, 0.0, 1.13, 1.13, 1.4, 1.34, 0.63, 0.6, -0.0, -1.26, -2.24, -3.07, -2.5, -1.66, 0.0, 2.25, 2.99, 2.18, 1.13, 0.0, 0.0, -0.69, -1.36, -0.72, 0.0, 0.0, 0.67, 0.67, 0.0, 0.0, 0.0, -0.7, -1.47, -1.35, -1.35, -1.35, -5.09, -5.09, -5.09, -5.34, -5.34, -5.34, -5.34, -5.08, -5.08, -5.32, -5.32, -5.32, -5.46, -5.7, -5.7, -5.69, -5.69, -5.92, -5.92, -5.92, -5.92, -6.07, -6.31, -6.56, -6.29, -6.53, -6.94, -6.94, -6.94, -6.92, -6.92, -6.92, -6.92, -6.5, -6.5, -6.5, -6.46, -6.46, -6.46, -6.46, -6.5, -6.29, -5.69, -5.7, -5.26, -5.17, -5.11, -3.99, -3.3, -2.92, -2.75, -3.4, -3.37, -3.35, -3.32, -3.32, -2.26, -1.65, -1.14, -1.05, -0.59, 0.0, 0.0, 0.0, 0.0, 1.27, 2.84, 2.8, 1.34, 0.6, -0.6, -2.12, -3.13, -3.53, -4.4, -5.72, -3.8, 0.0, 2.97, 5.38, 7.13, 7.03, 4.86, 1.39, -0.65, -1.23, -1.23, -1.19, -1.19, -1.36, -1.26, -1.36, -1.36, -2.9, -3.0, -2.29, -2.29, -2.29, -5.45, -5.45, -5.09, -5.34, -5.34, -5.34, -5.34, -5.08, -5.08, -5.32, -5.32, -5.32, -5.46, -5.7, -5.7, -5.69, -5.69, -5.92, -5.92, -5.92, -5.92, -5.67, -5.89, -6.31, -6.29, -6.29, -6.53, -6.53, -6.94, -6.92, -6.92, -6.92, -6.5, -6.27, -6.27, -6.27, -6.25, -6.46, -6.46, -6.25, -6.27, -6.06, -5.92, -5.69, -5.26, -4.72, -3.99, -3.53, -2.8, -2.21, -2.71, -2.89, -3.37, -3.56, -3.35, -3.35, -2.73, -2.12, -1.65, -1.14, -1.05, -0.54, 0.0, 0.0, 0.0, 1.27, 1.27, 1.26, 1.79, -0.0, -1.2, -2.68, -3.58, -3.82, -5.05, -5.09, -3.64, -0.74, 1.54, 5.38, 9.28, 10.58, 8.8, 5.81, 2.76, 0.0, -2.07, -3.15, -3.38, -3.32, -4.2, -2.8, -3.79, -3.69, -3.11, -2.51, -2.51, -2.51, -5.45, -5.45, -5.09, -5.09, -5.34, -5.34, -5.34, -5.34, -5.08, -5.08, -5.32, -5.32, -5.06, -5.7, -5.7, -5.95, -5.69, -5.69, -5.92, -5.92, -5.92, -5.67, -5.89, -6.31, -6.29, -6.29, -6.53, -6.53, -6.53, -6.68, -6.92, -6.5, -6.27, -6.53, -6.53, -6.27, -5.83, -5.8, -6.46, -6.92, -6.53, -5.89, -5.69, -5.04, -5.26, -4.54, -4.51, -4.05, -3.45, -2.97, -2.83, -2.83, -2.86, -2.89, -3.37, -3.37, -3.4, -2.75, -2.29, -1.65, -1.14, -1.16, -0.61, 0.0, 0.0, 1.27, 1.13, 0.6, 0.0, 0.0, -1.79, -3.13, -3.58, -3.82, -3.45, -2.53, -1.84, -0.69, 0.71, 5.28, 8.66, 9.55, 7.84, 7.13, 6.32, 3.46, -0.67, -4.07, -5.09, -6.18, -4.46, -3.72, -3.43, -3.16, -2.5, -2.17, -2.17, -2.17, -5.72, -5.72, -5.09, -5.09, -5.09, -5.09, -5.34, -5.34, -5.08, -5.08, -5.32, -5.32, -5.32, -5.7, -5.7, -5.7, -5.69, -5.69, -5.69, -5.92, -5.92, -5.67, -5.67, -5.89, -6.29, -6.29, -6.53, -6.53, -6.53, -6.53, -6.5, -6.5, -6.27, -6.53, -6.29, -5.86, -5.62, -5.83, -6.27, -6.92, -6.68, -6.06, -5.26, -5.04, -4.57, -4.54, -4.72, -4.05, -3.91, -3.45, -3.3, -3.49, -2.83, -2.86, -2.89, -3.18, -3.4, -2.96, -2.29, -2.32, -1.67, -1.16, -1.19, 0.0, 0.0, 0.0, 0.0, 0.0, 0.0, -0.45, -1.79, -2.68, -2.68, -3.07, -2.4, -1.24, -0.61, 0.0, 2.2, 5.43, 6.53, 7.11, 7.95, 8.68, 8.51, 5.45, 0.65, -2.51, -3.82, -3.45, -2.84, -3.14, -3.32, -2.68, -2.6, -2.12, -2.12, -2.12, -5.72, -5.72, -5.09, -5.09, -5.09, -5.09, -5.09, -5.34, -5.34, -5.08, -5.08, -5.32, -5.32, -5.06, -5.7, -5.7, -5.69, -5.69, -5.69, -5.92, -5.92, -5.92, -5.67, -5.89, -6.31, -6.29, -6.29, -6.53, -6.53, -6.53, -6.27, -6.27, -6.53, -6.29, -6.29, -5.86, -5.86, -5.2, -5.64, -6.29, -6.53, -6.29, -5.67, -5.02, -5.23, -4.54, -4.72, -4.54, -3.91, -3.94, -3.3, -3.49, -3.49, -3.32, -2.89, -2.92, -2.96, -2.77, -2.8, -2.16, -1.84, -1.7, -1.08, -0.51, 0.0, 0.0, 0.0, 0.0, 0.0, 0.0, 0.0, -1.7, -2.24, -2.24, -1.7, -1.26, -0.54, 0.0, 2.51, 4.46, 3.79, 5.2, 8.62, 10.65, 9.26, 5.71, 1.23, -1.79, -2.63, -2.91, -2.91, -2.68, -2.4, -2.5, -2.4, -1.86, -1.86, -1.86, -5.72, -5.72, -5.36, -5.36, -5.09, -5.09, -5.09, -5.34, -5.34, -5.08, -5.08, -5.32, -5.32, -5.06, -5.7, -5.7, -5.95, -5.69, -5.69, -5.69, -5.92, -5.92, -5.67, -5.89, -5.89, -6.29, -6.29, -6.53, -6.53, -6.53, -6.27, -6.27, -6.53, -6.29, -6.29, -5.89, -5.89, -5.23, -5.02, -5.23, -5.89, -6.31, -6.31, -5.89, -5.2, -5.2, -4.72, -4.54, -4.57, -3.94, -4.16, -3.49, -3.49, -3.32, -2.86, -2.73, -2.96, -3.0, -3.04, -2.36, -2.18, -1.73, -1.11, -0.51, 0.0, 0.0, 0.0, 0.0, 0.63, 0.45, 0.0, -0.45, -2.24, -2.24, -2.17, -1.49, -0.6, 0.6, 1.9, 2.51, 2.98, 4.46, 7.44, 9.22, 7.84, 4.86, -1.86, -2.21, -1.86, -0.89, -1.2, -1.9, -2.53, -2.21, -2.21, -1.61, -1.61, -1.61, -5.72, -5.72, -5.36, -5.36, -5.36, -5.09, -5.09, -5.09, -5.34, -5.34, -5.08, -5.32, -5.32, -5.06, -5.7, -5.7, -5.7, -5.69, -5.69, -5.69, -5.92, -5.92, -5.67, -5.89, -5.89, -6.29, -6.29, -6.53, -6.53, -6.53, -6.53, -6.53, -6.53, -6.29, -6.31, -5.89, -5.67, -5.26, -5.04, -4.6, -5.04, -5.69, -6.31, -6.31, -5.86, -5.64, -5.2, -5.23, -4.57, -4.6, -4.16, -3.97, -3.49, -3.52, -3.35, -2.89, -2.75, -3.0, -2.8, -2.36, -2.4, -1.57, -1.11, -0.51, -0.61, -0.8, -0.6, -0.63, 0.0, 0.0, 0.0, 0.0, -0.4, -2.24, -2.24, -1.79, -0.89, 0.0, 1.2, 1.61, 2.07, 3.07, 4.36, 4.6, 3.91, 0.0, -1.79, -1.8, -1.13, -0.71, -0.6, -1.9, -2.53, -2.53, -2.23, -2.53, -2.53, -2.53, -5.72, -5.36, -5.36, -5.36, -5.36, -5.09, -5.09, -5.09, -5.34, -5.34, -5.08, -5.08, -5.32, -5.32, -5.7, -5.7, -5.7, -5.69, -5.69, -5.69, -5.69, -5.92, -5.67, -5.67, -5.89, -6.29, -6.29, -6.29, -6.53, -6.53, -6.53, -6.53, -6.29, -6.29, -6.31, -5.67, -5.92, -5.26, -5.29, -4.63, -4.63, -4.84, -5.69, -6.31, -6.29, -5.86, -5.64, -5.23, -4.57, -4.6, -4.16, -3.97, -3.97, -3.52, -3.35, -3.37, -2.92, -2.77, -2.8, -2.82, -2.4, -1.57, -1.11, -0.59, -1.13, -1.16, -1.26, -1.7, -2.24, -2.17, -1.2, -0.6, 0.0, -0.99, -1.79, -1.79, -0.63, -0.0, 0.45, 0.8, 1.88, 2.23, 2.07, 1.49, 0.0, 0.0, -1.24, -1.61, -1.84, -1.61, -1.86, -2.4, -2.53, -2.51, -2.51, -2.53, -2.53, -2.53, -5.36, -5.36, -5.36, -5.36, -5.36, -5.36, -5.09, -5.09, -5.09, -5.34, -5.08, -5.08, -5.32, -5.32, -5.46, -5.7, -5.7, -5.69, -5.69, -5.69, -5.69, -5.92, -5.67, -5.67, -5.89, -6.29, -6.29, -6.29, -6.53, -6.53, -6.53, -6.29, -6.29, -6.56, -5.89, -5.92, -5.69, -5.29, -5.06, -4.42, -4.2, -4.42, -5.29, -5.69, -5.89, -5.89, -5.89, -5.23, -5.02, -4.6, -4.4, -4.16, -3.97, -4.0, -3.35, -3.37, -2.92, -2.96, -3.0, -2.8, -2.36, -1.73, -1.23, -1.27, -1.13, -1.8, -1.24, -1.86, -3.13, -3.13, -3.13, -3.07, -2.5, -2.21, -1.7, -1.79, -0.6, -0.0, 0.45, 0.63, 0.99, 1.88, 2.07, 0.0, 0.0, 0.0, 0.0, -2.0, -2.79, -3.39, -3.53, -3.39, -2.79, -2.51, -2.51, -2.15, -2.15, -2.15, -5.1, -5.1, -5.36, -5.36, -5.36, -5.36, -5.09, -5.09, -5.09, -5.34, -5.08, -5.08, -5.32, -5.32, -5.46, -5.7, -5.7, -5.95, -5.69, -5.69, -5.69, -5.92, -5.92, -5.67, -5.89, -6.31, -6.29, -6.29, -6.53, -6.53, -6.29, -6.29, -6.29, -6.31, -5.89, -5.92, -5.95, -5.29, -5.06, -4.66, -4.66, -4.66, -4.42, -5.29, -5.26, -5.67, -5.67, -5.67, -5.26, -4.6, -4.63, -4.16, -3.97, -4.0, -4.0, -3.56, -3.4, -2.96, -2.77, -2.8, -2.8, -2.36, -1.73, -1.23, -1.11, -2.48, -2.48, -2.84, -2.17, -2.68, -4.02, -4.47, -4.41, -3.51, -2.68, -1.79, -0.95, -0.63, 0.0, 0.0, 0.63, 1.24, 1.44, 1.51, 1.42, 1.38, 0.0, -2.24, -3.82, -4.02, -4.92, -4.87, -3.14, -2.51, -1.84, -1.61, -1.61, -1.61, -5.44, -5.44, -5.1, -5.1, -5.1, -5.36, -5.36, -5.09, -5.09, -5.34, -5.34, -5.08, -5.32, -5.32, -5.72, -5.7, -5.7, -5.7, -5.69, -5.69, -5.69, -5.69, -5.92, -5.67, -5.89, -6.31, -6.29, -6.29, -6.53, -6.29, -6.29, -6.29, -6.29, -6.31, -5.67, -5.69, -5.7, -5.06, -5.32, -5.08, -4.66, -4.66, -4.66, -4.42, -4.63, -5.04, -5.26, -5.04, -5.04, -4.63, -4.63, -3.97, -4.0, -4.0, -4.0, -4.03, -3.37, -3.4, -3.42, -2.77, -3.0, -2.8, -2.18, -1.57, -1.76, -1.76, -2.48, -2.23, -1.26, -2.0, -3.32, -3.51, -3.13, -2.68, -2.6, -3.07, -2.17, -2.24, -1.79, -0.63, 0.0, 0.0, 1.41, 3.07, 3.11, 2.25, 1.35, -2.24, -3.87, -4.92, -6.26, -5.2, -2.84, -2.07, -1.84, -0.53, -0.53, -0.53, -5.44, -5.44, -5.1, -5.1, -5.1, -5.1, -5.36, -5.09, -5.09, -5.34, -5.34, -5.08, -5.32, -5.72, -5.72, -5.7, -5.7, -5.7, -5.95, -5.69, -5.69, -5.69, -5.92, -5.67, -6.31, -6.31, -6.29, -6.29, -6.29, -6.29, -6.29, -6.29, -6.31, -6.31, -5.92, -5.69, -5.7, -5.32, -5.08, -5.08, -5.08, -5.08, -4.66, -4.66, -4.42, -4.63, -4.63, -4.63, -4.63, -4.42, -4.66, -4.0, -4.0, -4.0, -3.8, -3.56, -3.37, -3.83, -3.42, -3.42, -3.21, -3.45, -2.82, -2.2, -1.76, -1.76, -2.48, -2.51, -2.21, -1.86, -1.86, -1.7, -1.34, -1.6, -2.12, -2.68, -3.13, -3.13, -2.68, -2.24, -1.34, -0.71, 0.0, 1.52, 2.25, 1.45, 1.36, -0.57, -3.53, -4.47, -5.32, -4.66, -2.51, -2.15, -1.2, -0.0, -0.0, -0.0, -5.44, -5.44, -5.1, -5.1, -5.1, -5.1, -5.36, -5.09, -5.09, -5.34, -5.34, -5.08, -5.72, -5.72, -5.72, -5.7, -5.7, -5.7, -5.95, -5.69, -5.69, -5.69, -5.92, -5.67, -6.31, -6.31, -6.56, -6.29, -6.29, -6.29, -6.29, -6.31, -5.89, -5.89, -5.92, -5.95, -5.7, -5.32, -5.08, -5.08, -5.08, -5.32, -5.32, -5.06, -4.42, -4.42, -4.66, -4.66, -4.44, -4.0, -4.24, -4.03, -4.03, -4.03, -3.56, -3.37, -3.6, -3.4, -4.08, -3.84, -3.84, -3.45, -3.04, -2.84, -2.44, -2.22, -2.22, -2.23, -2.79, -1.7, -1.6, -1.2, -0.89, -1.2, -1.86, -2.24, -2.63, -3.13, -3.13, -3.13, -2.24, -1.86, -1.16, -0.72, 0.0, 0.0, 0.0, 0.0, -1.79, -3.09, -3.72, -4.11, -3.07, -1.7, 0.45, 1.2, 1.2, 1.2, -5.71, -5.71, -5.1, -5.1, -5.1, -5.1, -5.36, -5.36, -5.09, -5.34, -5.34, -5.46, -5.72, -5.72, -5.72, -5.7, -5.7, -5.7, -5.95, -5.95, -5.69, -5.69, -5.69, -5.92, -6.31, -6.31, -6.31, -6.29, -6.29, -6.29, -6.31, -5.89, -5.89, -5.67, -5.69, -5.7, -5.06, -5.32, -5.08, -5.08, -5.08, -5.32, -5.32, -5.06, -4.63, -4.42, -4.2, -4.0, -4.0, -4.03, -4.03, -3.81, -3.81, -3.81, -3.37, -3.6, -3.4, -3.4, -3.42, -4.08, -4.08, -4.1, -3.47, -3.08, -2.61, -2.44, -2.22, -2.23, -2.53, -2.12, -2.24, -1.79, -1.79, -2.12, -3.07, -3.58, -3.51, -3.32, -3.58, -2.68, -2.24, -2.17, -2.53, -2.11, -1.5, 0.0, 0.0, 0.0, -0.89, -2.4, -2.79, -3.72, -3.53, 0.0, 2.91, 3.53, 3.53, 3.53, -5.71, -5.71, -5.38, -5.1, -5.1, -5.1, -5.36, -5.36, -5.09, -5.34, -5.34, -5.72, -5.72, -5.72, -5.72, -5.98, -5.7, -5.7, -5.7, -5.95, -5.95, -5.69, -5.69, -5.69, -5.67, -6.31, -6.31, -6.31, -6.31, -5.89, -5.89, -5.89, -5.67, -5.67, -5.69, -5.7, -5.32, -5.32, -5.08, -5.08, -5.08, -5.08, -5.32, -5.06, -5.06, -4.63, -4.42, -4.0, -4.0, -4.03, -4.03, -3.81, -4.05, -4.05, -4.05, -3.4, -3.4, -2.96, -3.42, -3.42, -4.08, -4.75, -4.12, -3.49, -2.84, -2.86, -2.86, -2.48, -2.23, -2.5, -2.63, -1.79, -1.79, -2.24, -3.13, -3.58, -3.58, -3.07, -1.34, -2.17, -2.24, -2.6, -2.53, -2.88, -2.31, -1.54, -0.74, -0.71, -0.54, -2.24, -2.63, -3.07, -1.7, 1.9, 4.4, 5.64, 5.64, 5.64, -5.71, -5.71, -5.38, -5.38, -5.1, -5.1, -5.36, -5.36, -5.09, -5.34, -5.34, -5.72, -5.72, -5.72, -5.72, -5.72, -5.7, -5.7, -5.7, -5.7, -5.7, -5.95, -5.69, -5.69, -5.92, -5.67, -5.89, -5.89, -5.89, -5.89, -5.89, -5.67, -5.67, -5.67, -5.69, -5.7, -5.32, -5.32, -5.08, -5.08, -5.08, -5.08, -5.32, -5.32, -5.06, -5.06, -4.42, -4.2, -4.0, -4.0, -4.03, -3.81, -4.05, -4.05, -4.05, -3.4, -3.64, -2.96, -2.77, -3.42, -4.08, -4.47, -4.47, -3.84, -3.49, -3.22, -2.86, -2.86, -2.23, -2.21, -2.0, -1.79, -1.79, -2.24, -1.2, -2.24, -3.13, -1.79, -0.89, -1.34, -2.24, -2.91, -3.14, -3.38, -3.11, -1.6, -0.77, 0.0, 0.0, -1.61, -2.5, -1.9, 0.0, 2.51, 5.2, 5.94, 5.94, 5.94, -5.71, -5.71, -5.38, -5.38, -5.38, -5.1, -5.1, -5.36, -5.09, -5.09, -5.34, -5.72, -5.46, -5.72, -5.72, -5.72, -5.72, -5.7, -5.7, -5.7, -5.7, -5.7, -5.95, -5.69, -5.92, -5.67, -5.67, -5.89, -5.89, -5.89, -5.67, -5.67, -5.67, -5.67, -5.69, -5.7, -5.32, -5.32, -5.08, -5.08, -5.08, -5.08, -5.32, -5.32, -5.32, -5.06, -4.63, -4.66, -4.0, -4.0, -4.03, -4.03, -4.05, -4.05, -4.05, -3.83, -3.64, -3.42, -2.77, -3.21, -3.84, -4.47, -5.08, -4.45, -4.12, -3.49, -3.49, -2.86, -2.84, -2.21, -2.4, -2.17, -2.12, 0.0, 0.0, -1.34, -1.79, -1.34, -0.89, -1.34, -2.24, -3.32, -3.35, -3.72, -3.7, -1.58, 0.0, 0.0, 0.0, 0.0, -0.73, 0.0, 0.59, 2.48, 4.09, 5.34, 5.34, 5.34, -5.71, -5.71, -5.38, -5.38, -5.38, -5.1, -5.1, -5.36, -5.09, -5.09, -5.34, -5.72, -5.46, -5.72, -5.72, -5.72, -5.72, -5.7, -5.7, -5.7, -5.7, -5.7, -5.95, -5.69, -5.92, -5.67, -5.67, -5.89, -5.89, -5.89, -5.67, -5.67, -5.67, -5.67, -5.69, -5.7, -5.32, -5.32, -5.08, -5.08, -5.08, -5.08, -5.32, -5.32, -5.32, -5.06, -4.63, -4.66, -4.0, -4.0, -4.03, -4.03, -4.05, -4.05, -4.05, -3.83, -3.64, -3.42, -2.77, -3.21, -3.84, -4.47, -5.08, -4.45, -4.12, -3.49, -3.49, -2.86, -2.84, -2.21, -2.4, -2.17, -2.12, 0.0, 0.0, -1.34, -2.24, -1.34, -0.89, -1.34, -2.24, -3.39, -3.72, -4.11, -3.91, -2.21, -0.74, 0.0, 0.75, 1.47, 1.49, 1.45, 2.11, 2.2, 2.51, 3.45, 3.45, 3.45]}]